Wetterdaten: Freitag, 24.08.2018
Datum Zeit Temp. Aussen Temp. o. S. +5cm Feuchte Auss Luftdruck Regen Sonnenschein Regendauer Solar Windben Empfang
24.08.2018 00:00 20,2 C 20,0 C 19,4 C 79 % 1008,8 hPa 0,0 l/m 0 min 0 min 0 W/m 4,5 km/h (1 Bft) 97,87 %
24.08.2018 00:02 20,2 C 20,0 C 19,4 C 79 % 1008,7 hPa 0,0 l/m 0 min 0 min 0 W/m 4,5 km/h (1 Bft) 92,11 %
24.08.2018 00:04 20,3 C 20,0 C 19,4 C 79 % 1008,8 hPa 0,0 l/m 0 min 0 min 0 W/m 2,3 km/h (1 Bft) 95,74 %
24.08.2018 00:08 20,3 C 20,0 C 20,0 C 79 % 1008,7 hPa 0,0 l/m 0 min 0 min 0 W/m 4,5 km/h (1 Bft) 97,85 %
24.08.2018 00:10 20,3 C 20,0 C 19,4 C 79 % 1008,7 hPa 0,0 l/m 0 min 0 min 0 W/m 4,5 km/h (1 Bft) 95,74 %
24.08.2018 00:12 20,3 C 20,0 C 19,4 C 79 % 1008,8 hPa 0,0 l/m 0 min 0 min 0 W/m 4,5 km/h (1 Bft) 95,35 %
24.08.2018 00:14 20,3 C 20,0 C 19,4 C 79 % 1008,8 hPa 0,0 l/m 0 min 0 min 0 W/m 4,5 km/h (1 Bft) 95,65 %
24.08.2018 00:16 20,3 C 20,0 C 19,4 C 79 % 1008,7 hPa 0,0 l/m 0 min 0 min 0 W/m 4,5 km/h (1 Bft) 97,87 %
24.08.2018 00:18 20,4 C 20,0 C 19,4 C 79 % 1008,6 hPa 0,0 l/m 0 min 0 min 0 W/m 2,3 km/h (1 Bft) 93,62 %
24.08.2018 00:20 20,4 C 20,0 C 19,4 C 79 % 1008,6 hPa 0,0 l/m 0 min 0 min 0 W/m 2,3 km/h (1 Bft) 97,87 %
24.08.2018 00:22 20,4 C 20,0 C 19,4 C 79 % 1008,6 hPa 0,0 l/m 0 min 0 min 0 W/m 2,3 km/h (1 Bft) 93,75 %
24.08.2018 00:24 20,4 C 20,0 C 19,4 C 79 % 1008,7 hPa 0,0 l/m 0 min 0 min 0 W/m 4,5 km/h (1 Bft) 95,65 %
24.08.2018 00:26 20,4 C 20,0 C 19,4 C 79 % 1008,7 hPa 0,0 l/m 0 min 0 min 0 W/m 4,5 km/h (1 Bft) 93,62 %
24.08.2018 00:28 20,4 C 20,0 C 19,4 C 79 % 1008,7 hPa 0,0 l/m 0 min 0 min 0 W/m 4,5 km/h (1 Bft) 95,83 %
24.08.2018 00:30 20,4 C 20,0 C 19,4 C 79 % 1008,7 hPa 0,0 l/m 0 min 0 min 0 W/m 2,3 km/h (1 Bft) 95,74 %
24.08.2018 00:32 20,4 C 20,0 C 19,4 C 79 % 1008,7 hPa 0,0 l/m 0 min 0 min 0 W/m 4,5 km/h (1 Bft) 93,62 %
24.08.2018 00:34 20,4 C 20,0 C 19,4 C 79 % 1008,8 hPa 0,0 l/m 0 min 0 min 0 W/m 4,5 km/h (1 Bft) 95,74 %
24.08.2018 00:36 20,5 C 20,0 C 19,4 C 79 % 1008,7 hPa 0,0 l/m 0 min 0 min 0 W/m 4,5 km/h (1 Bft) 97,92 %
24.08.2018 00:38 20,5 C 20,0 C 19,4 C 79 % 1008,7 hPa 0,0 l/m 0 min 0 min 0 W/m 11,3 km/h (2 Bft) 95,83 %
24.08.2018 00:40 20,5 C 20,0 C 19,4 C 79 % 1008,7 hPa 0,0 l/m 0 min 0 min 0 W/m 6,8 km/h (2 Bft) 97,87 %
24.08.2018 00:42 20,5 C 20,0 C 19,4 C 79 % 1008,8 hPa 0,0 l/m 0 min 0 min 0 W/m 4,5 km/h (1 Bft) 97,83 %
24.08.2018 00:44 20,6 C 19,4 C 19,4 C 79 % 1008,7 hPa 0,0 l/m 0 min 2 min 0 W/m 6,8 km/h (2 Bft) 97,87 %
24.08.2018 00:46 20,6 C 19,4 C 19,4 C 79 % 1008,6 hPa 0,0 l/m 0 min 0 min 0 W/m 9,0 km/h (2 Bft) 97,87 %
24.08.2018 00:48 20,6 C 19,4 C 19,4 C 80 % 1008,7 hPa 0,0 l/m 0 min 0 min 0 W/m 9,0 km/h (2 Bft) 95,74 %
24.08.2018 00:50 20,6 C 19,4 C 19,4 C 80 % 1008,7 hPa 0,0 l/m 0 min 0 min 0 W/m 11,3 km/h (2 Bft) 97,87 %
24.08.2018 00:52 20,6 C 19,4 C 19,4 C 80 % 1008,7 hPa 0,0 l/m 0 min 0 min 0 W/m 9,0 km/h (2 Bft) 95,83 %
24.08.2018 00:54 20,6 C 19,4 C 19,4 C 80 % 1008,7 hPa 0,0 l/m 0 min 0 min 0 W/m 6,8 km/h (2 Bft) 97,83 %
24.08.2018 00:56 20,6 C 19,4 C 19,4 C 80 % 1008,6 hPa 0,0 l/m 0 min 0 min 0 W/m 9,0 km/h (2 Bft) 97,87 %
24.08.2018 00:58 20,5 C 19,4 C 19,4 C 81 % 1008,7 hPa 0,0 l/m 0 min 0 min 0 W/m 4,5 km/h (1 Bft) 97,87 %
24.08.2018 01:00 20,5 C 19,4 C 19,4 C 81 % 1008,7 hPa 0,0 l/m 0 min 0 min 0 W/m 4,5 km/h (1 Bft) 93,62 %
24.08.2018 01:02 20,5 C 19,4 C 19,4 C 81 % 1008,6 hPa 0,0 l/m 0 min 0 min 0 W/m 4,5 km/h (1 Bft) 97,87 %
24.08.2018 01:04 20,4 C 19,4 C 19,4 C 81 % 1008,6 hPa 0,0 l/m 0 min 0 min 0 W/m 4,5 km/h (1 Bft) 97,87 %
24.08.2018 01:06 20,4 C 19,4 C 19,4 C 81 % 1008,6 hPa 0,0 l/m 0 min 0 min 0 W/m 2,3 km/h (1 Bft) 95,65 %
24.08.2018 01:08 20,4 C 19,4 C 19,4 C 81 % 1008,6 hPa 0,0 l/m 0 min 0 min 0 W/m 4,5 km/h (1 Bft) 100,00 %
24.08.2018 01:10 20,4 C 19,4 C 19,4 C 81 % 1008,5 hPa 0,0 l/m 0 min 0 min 0 W/m 6,8 km/h (2 Bft) 100,00 %
24.08.2018 01:12 20,4 C 19,4 C 19,4 C 81 % 1008,5 hPa 0,0 l/m 0 min 0 min 0 W/m 4,5 km/h (1 Bft) 100,00 %
24.08.2018 01:14 20,4 C 19,4 C 19,4 C 81 % 1008,6 hPa 0,0 l/m 0 min 0 min 0 W/m 6,8 km/h (2 Bft) 100,00 %
24.08.2018 01:16 20,4 C 19,4 C 19,4 C 81 % 1008,6 hPa 0,0 l/m 0 min 0 min 0 W/m 4,5 km/h (1 Bft) 100,00 %
24.08.2018 01:18 20,4 C 18,9 C 19,4 C 81 % 1008,7 hPa 0,0 l/m 0 min 0 min 0 W/m 6,8 km/h (2 Bft) 100,00 %
24.08.2018 01:20 20,4 C 17,2 C 18,3 C 82 % 1008,6 hPa 0,0 l/m 0 min 2 min 0 W/m 6,8 km/h (2 Bft) 100,00 %
24.08.2018 01:22 20,4 C 17,2 C 18,3 C 82 % 1008,7 hPa 0,0 l/m 0 min 2 min 0 W/m 4,5 km/h (1 Bft) 100,00 %
24.08.2018 01:24 20,4 C 17,2 C 18,3 C 83 % 1008,6 hPa 0,0 l/m 0 min 0 min 0 W/m 6,8 km/h (2 Bft) 100,00 %
24.08.2018 01:26 20,4 C 17,2 C 18,3 C 83 % 1008,6 hPa 0,0 l/m 0 min 2 min 0 W/m 4,5 km/h (1 Bft) 98,04 %
24.08.2018 01:28 20,3 C 17,2 C 18,3 C 83 % 1008,6 hPa 0,0 l/m 0 min 0 min 0 W/m 2,3 km/h (1 Bft) 97,87 %
24.08.2018 01:30 20,3 C 17,2 C 18,3 C 84 % 1008,7 hPa 0,0 l/m 0 min 2 min 0 W/m 2,3 km/h (1 Bft) 97,83 %
24.08.2018 01:32 20,3 C 17,2 C 18,3 C 84 % 1008,8 hPa 0,0 l/m 0 min 2 min 0 W/m 4,5 km/h (1 Bft) 95,74 %
24.08.2018 01:34 20,3 C 17,2 C 17,8 C 84 % 1008,7 hPa 0,0 l/m 0 min 2 min 0 W/m 4,5 km/h (1 Bft) 97,87 %
24.08.2018 01:36 20,2 C 17,2 C 17,8 C 85 % 1008,8 hPa 0,0 l/m 0 min 2 min 0 W/m 4,5 km/h (1 Bft) 97,87 %
24.08.2018 01:38 20,2 C 17,2 C 17,8 C 85 % 1008,8 hPa 0,0 l/m 0 min 2 min 0 W/m 4,5 km/h (1 Bft) 95,74 %
24.08.2018 01:40 20,2 C 17,2 C 17,8 C 85 % 1008,8 hPa 0,0 l/m 0 min 2 min 0 W/m 2,3 km/h (1 Bft) 97,87 %
24.08.2018 01:42 20,1 C 16,7 C 17,8 C 85 % 1008,7 hPa 0,0 l/m 0 min 2 min 0 W/m 4,5 km/h (1 Bft) 95,65 %
24.08.2018 01:44 20,1 C 16,7 C 17,8 C 85 % 1008,8 hPa 0,0 l/m 0 min 2 min 0 W/m 9,0 km/h (2 Bft) 97,87 %
24.08.2018 01:46 19,9 C 16,7 C 17,2 C 85 % 1008,8 hPa 0,0 l/m 0 min 2 min 0 W/m 9,0 km/h (2 Bft) 97,87 %
24.08.2018 01:48 19,9 C 16,7 C 17,2 C 86 % 1008,8 hPa 0,0 l/m 0 min 2 min 0 W/m 4,5 km/h (1 Bft) 97,56 %
24.08.2018 01:50 19,8 C 16,7 C 17,2 C 86 % 1008,7 hPa 0,2 l/m 0 min 2 min 0 W/m 11,3 km/h (2 Bft) 93,75 %
24.08.2018 01:52 19,8 C 16,7 C 17,2 C 86 % 1008,8 hPa 0,0 l/m 0 min 2 min 0 W/m 6,8 km/h (2 Bft) 97,87 %
24.08.2018 01:54 19,7 C 16,7 C 16,7 C 87 % 1008,8 hPa 0,0 l/m 0 min 2 min 0 W/m 4,5 km/h (1 Bft) 97,87 %
24.08.2018 01:56 19,6 C 16,7 C 16,7 C 87 % 1008,7 hPa 0,0 l/m 0 min 2 min 0 W/m 6,8 km/h (2 Bft) 95,74 %
24.08.2018 01:58 19,6 C 16,7 C 16,7 C 88 % 1008,7 hPa 0,0 l/m 0 min 2 min 0 W/m 6,8 km/h (2 Bft) 97,83 %
24.08.2018 02:00 19,5 C 16,7 C 16,7 C 88 % 1008,7 hPa 0,0 l/m 0 min 2 min 0 W/m 4,5 km/h (1 Bft) 97,92 %
24.08.2018 02:02 19,4 C 16,7 C 16,7 C 88 % 1008,8 hPa 0,0 l/m 0 min 2 min 0 W/m 2,3 km/h (1 Bft) 98,00 %
24.08.2018 02:04 19,3 C 16,7 C 16,7 C 88 % 1008,8 hPa 0,0 l/m 0 min 0 min 0 W/m 4,5 km/h (1 Bft) 97,87 %
24.08.2018 02:06 19,3 C 16,7 C 16,7 C 89 % 1008,7 hPa 0,0 l/m 0 min 0 min 0 W/m 2,3 km/h (1 Bft) 95,74 %
24.08.2018 02:08 19,2 C 16,7 C 16,7 C 89 % 1008,7 hPa 0,0 l/m 0 min 0 min 0 W/m 2,3 km/h (1 Bft) 97,83 %
24.08.2018 02:10 19,2 C 16,7 C 16,7 C 89 % 1008,7 hPa 0,0 l/m 0 min 0 min 0 W/m 4,5 km/h (1 Bft) 97,87 %
24.08.2018 02:12 19,1 C 16,7 C 16,7 C 89 % 1008,8 hPa 0,0 l/m 0 min 0 min 0 W/m 4,5 km/h (1 Bft) 95,83 %
24.08.2018 02:14 19,0 C 16,7 C 16,7 C 89 % 1008,8 hPa 0,0 l/m 0 min 0 min 0 W/m 2,3 km/h (1 Bft) 97,87 %
24.08.2018 02:16 18,9 C 16,1 C 16,7 C 89 % 1008,8 hPa 0,0 l/m 0 min 2 min 0 W/m 11,3 km/h (2 Bft) 100,00 %
24.08.2018 02:18 18,8 C 16,1 C 16,7 C 89 % 1008,8 hPa 0,0 l/m 0 min 0 min 0 W/m 6,8 km/h (2 Bft) 97,87 %
24.08.2018 02:20 18,7 C 16,1 C 16,1 C 90 % 1008,8 hPa 0,0 l/m 0 min 0 min 0 W/m 9,0 km/h (2 Bft) 100,00 %
24.08.2018 02:22 18,6 C 16,1 C 16,1 C 90 % 1008,8 hPa 0,0 l/m 0 min 0 min 0 W/m 6,8 km/h (2 Bft) 100,00 %
24.08.2018 02:24 18,6 C 16,1 C 16,1 C 90 % 1008,8 hPa 0,0 l/m 0 min 2 min 0 W/m 2,3 km/h (1 Bft) 100,00 %
24.08.2018 02:26 18,5 C 16,1 C 16,1 C 90 % 1008,8 hPa 0,0 l/m 0 min 2 min 0 W/m 2,3 km/h (1 Bft) 97,62 %
24.08.2018 02:28 18,4 C 16,1 C 16,1 C 90 % 1008,7 hPa 0,0 l/m 0 min 2 min 0 W/m 2,3 km/h (1 Bft) 100,00 %
24.08.2018 02:30 18,4 C 16,1 C 16,1 C 90 % 1008,7 hPa 0,0 l/m 0 min 2 min 0 W/m 4,5 km/h (1 Bft) 100,00 %
24.08.2018 02:32 18,3 C 16,1 C 16,1 C 90 % 1008,7 hPa 0,0 l/m 0 min 0 min 0 W/m 2,3 km/h (1 Bft) 100,00 %
24.08.2018 02:34 18,3 C 16,1 C 16,1 C 90 % 1008,6 hPa 0,0 l/m 0 min 0 min 0 W/m 0,0 km/h (0 Bft) 100,00 %
24.08.2018 02:36 18,3 C 16,1 C 16,1 C 90 % 1008,6 hPa 0,0 l/m 0 min 2 min 0 W/m 0,0 km/h (0 Bft) 100,00 %
24.08.2018 02:38 18,2 C 16,1 C 16,1 C 91 % 1008,6 hPa 0,0 l/m 0 min 2 min 0 W/m 2,3 km/h (1 Bft) 100,00 %
24.08.2018 02:40 18,2 C 16,1 C 16,1 C 91 % 1008,6 hPa 0,0 l/m 0 min 2 min 0 W/m 2,3 km/h (1 Bft) 97,87 %
24.08.2018 02:42 18,2 C 16,1 C 16,1 C 91 % 1008,5 hPa 0,0 l/m 0 min 2 min 0 W/m 0,0 km/h (0 Bft) 100,00 %
24.08.2018 02:44 18,2 C 16,1 C 16,1 C 91 % 1008,5 hPa 0,0 l/m 0 min 0 min 0 W/m 4,5 km/h (1 Bft) 100,00 %
24.08.2018 02:46 18,1 C 16,1 C 16,7 C 91 % 1008,5 hPa 0,0 l/m 0 min 0 min 0 W/m 4,5 km/h (1 Bft) 100,00 %
24.08.2018 02:48 18,1 C 16,1 C 16,1 C 91 % 1008,5 hPa 0,0 l/m 0 min 0 min 0 W/m 2,3 km/h (1 Bft) 100,00 %
24.08.2018 02:50 18,1 C 16,1 C 16,7 C 91 % 1008,4 hPa 0,0 l/m 0 min 0 min 0 W/m 2,3 km/h (1 Bft) 100,00 %
24.08.2018 02:52 18,1 C 16,1 C 16,7 C 92 % 1008,5 hPa 0,0 l/m 0 min 0 min 0 W/m 0,0 km/h (0 Bft) 97,92 %
24.08.2018 02:54 18,0 C 16,1 C 16,7 C 92 % 1008,5 hPa 0,0 l/m 0 min 0 min 0 W/m 4,5 km/h (1 Bft) 100,00 %
24.08.2018 02:56 18,0 C 15,6 C 16,7 C 92 % 1008,4 hPa 0,0 l/m 0 min 0 min 0 W/m 4,5 km/h (1 Bft) 100,00 %
24.08.2018 02:58 17,9 C 15,6 C 16,7 C 91 % 1008,4 hPa 0,0 l/m 0 min 0 min 0 W/m 2,3 km/h (1 Bft) 97,87 %
24.08.2018 03:00 17,9 C 15,6 C 16,7 C 91 % 1008,5 hPa 0,0 l/m 0 min 0 min 0 W/m 2,3 km/h (1 Bft) 97,87 %
24.08.2018 03:02 17,9 C 15,6 C 16,7 C 92 % 1008,5 hPa 0,0 l/m 0 min 0 min 0 W/m 2,3 km/h (1 Bft) 97,87 %
24.08.2018 03:04 17,8 C 15,6 C 16,7 C 92 % 1008,5 hPa 0,0 l/m 0 min 0 min 0 W/m 4,5 km/h (1 Bft) 100,00 %
24.08.2018 03:06 17,8 C 15,6 C 16,7 C 92 % 1008,5 hPa 0,0 l/m 0 min 0 min 0 W/m 0,0 km/h (0 Bft) 97,87 %
24.08.2018 03:08 17,8 C 15,6 C 16,7 C 92 % 1008,5 hPa 0,0 l/m 0 min 0 min 0 W/m 2,3 km/h (1 Bft) 95,65 %
24.08.2018 03:10 17,7 C 15,6 C 16,7 C 92 % 1008,4 hPa 0,0 l/m 0 min 0 min 0 W/m 0,0 km/h (0 Bft) 97,87 %
24.08.2018 03:12 17,7 C 15,6 C 16,7 C 92 % 1008,5 hPa 0,0 l/m 0 min 0 min 0 W/m 2,3 km/h (1 Bft) 97,87 %
24.08.2018 03:14 17,7 C 15,6 C 16,7 C 92 % 1008,5 hPa 0,0 l/m 0 min 0 min 0 W/m 2,3 km/h (1 Bft) 97,87 %
24.08.2018 03:16 17,7 C 15,6 C 16,7 C 92 % 1008,4 hPa 0,0 l/m 0 min 0 min 0 W/m 2,3 km/h (1 Bft) 95,74 %
24.08.2018 03:18 17,6 C 15,6 C 16,7 C 92 % 1008,5 hPa 0,0 l/m 0 min 0 min 0 W/m 0,0 km/h (0 Bft) 95,74 %
24.08.2018 03:20 17,6 C 15,6 C 16,7 C 92 % 1008,4 hPa 0,0 l/m 0 min 0 min 0 W/m 2,3 km/h (1 Bft) 95,74 %
24.08.2018 03:22 17,6 C 15,6 C 16,7 C 92 % 1008,4 hPa 0,0 l/m 0 min 0 min 0 W/m 2,3 km/h (1 Bft) 91,49 %
24.08.2018 03:24 17,6 C 15,6 C 16,7 C 92 % 1008,5 hPa 0,0 l/m 0 min 0 min 0 W/m 2,3 km/h (1 Bft) 95,74 %
24.08.2018 03:26 17,5 C 15,6 C 16,7 C 92 % 1008,4 hPa 0,0 l/m 0 min 0 min 0 W/m 2,3 km/h (1 Bft) 95,65 %
24.08.2018 03:28 17,5 C 15,6 C 16,7 C 92 % 1008,4 hPa 0,0 l/m 0 min 0 min 0 W/m 0,0 km/h (0 Bft) 95,74 %
24.08.2018 03:30 17,5 C 15,6 C 16,7 C 92 % 1008,4 hPa 0,2 l/m 0 min 0 min 0 W/m 0,0 km/h (0 Bft) 95,74 %
24.08.2018 03:32 17,5 C 15,6 C 16,7 C 92 % 1008,4 hPa 0,0 l/m 0 min 0 min 0 W/m 2,3 km/h (1 Bft) 95,74 %
24.08.2018 03:34 17,4 C 15,6 C 16,7 C 92 % 1008,4 hPa 0,0 l/m 0 min 0 min 0 W/m 2,3 km/h (1 Bft) 95,74 %
24.08.2018 03:36 17,4 C 15,6 C 16,7 C 93 % 1008,4 hPa 0,0 l/m 0 min 0 min 0 W/m 0,0 km/h (0 Bft) 93,62 %
24.08.2018 03:38 17,4 C 15,6 C 16,7 C 93 % 1008,4 hPa 0,0 l/m 0 min 0 min 0 W/m 2,3 km/h (1 Bft) 95,65 %
24.08.2018 03:40 17,4 C 15,6 C 16,7 C 93 % 1008,3 hPa 0,0 l/m 0 min 0 min 0 W/m 2,3 km/h (1 Bft) 95,74 %
24.08.2018 03:42 17,4 C 15,6 C 16,7 C 93 % 1008,3 hPa 0,0 l/m 0 min 0 min 0 W/m 2,3 km/h (1 Bft) 95,24 %
24.08.2018 03:44 17,4 C 15,6 C 16,7 C 93 % 1008,2 hPa 0,0 l/m 0 min 0 min 0 W/m 0,0 km/h (0 Bft) 93,62 %
24.08.2018 03:46 17,4 C 15,6 C 16,1 C 93 % 1008,3 hPa 0,0 l/m 0 min 0 min 0 W/m 2,3 km/h (1 Bft) 95,74 %
24.08.2018 03:48 17,3 C 15,6 C 16,1 C 93 % 1008,3 hPa 0,0 l/m 0 min 0 min 0 W/m 2,3 km/h (1 Bft) 95,74 %
24.08.2018 03:50 17,3 C 15,6 C 16,1 C 93 % 1008,3 hPa 0,0 l/m 0 min 0 min 0 W/m 0,0 km/h (0 Bft) 93,62 %
24.08.2018 03:52 17,3 C 15,6 C 16,1 C 93 % 1008,4 hPa 0,0 l/m 0 min 0 min 0 W/m 0,0 km/h (0 Bft) 95,74 %
24.08.2018 03:54 17,2 C 15,6 C 16,1 C 93 % 1008,4 hPa 0,0 l/m 0 min 0 min 0 W/m 0,0 km/h (0 Bft) 95,83 %
24.08.2018 03:56 17,2 C 15,6 C 16,1 C 93 % 1008,3 hPa 0,0 l/m 0 min 0 min 0 W/m 0,0 km/h (0 Bft) 97,83 %
24.08.2018 03:58 17,2 C 15,6 C 16,1 C 93 % 1008,4 hPa 0,0 l/m 0 min 0 min 0 W/m 0,0 km/h (0 Bft) 97,87 %
24.08.2018 04:00 17,2 C 15,6 C 16,1 C 93 % 1008,3 hPa 0,0 l/m 0 min 0 min 0 W/m 0,0 km/h (0 Bft) 98,00 %
24.08.2018 04:06 17,1 C 15,6 C 16,1 C 93 % 1008,3 hPa 0,0 l/m 0 min 0 min 0 W/m 0,0 km/h (0 Bft) 100,00 %
24.08.2018 04:08 17,1 C 15,0 C 16,1 C 93 % 1008,3 hPa 0,0 l/m 0 min 0 min 0 W/m 0,0 km/h (0 Bft) 95,74 %
24.08.2018 04:10 17,1 C 15,0 C 16,1 C 93 % 1008,3 hPa 0,0 l/m 0 min 0 min 0 W/m 0,0 km/h (0 Bft) 97,87 %
24.08.2018 04:12 17,0 C 15,0 C 16,1 C 93 % 1008,4 hPa 0,0 l/m 0 min 0 min 0 W/m 0,0 km/h (0 Bft) 95,74 %
24.08.2018 04:14 17,0 C 15,0 C 16,1 C 93 % 1008,4 hPa 0,0 l/m 0 min 0 min 0 W/m 0,0 km/h (0 Bft) 97,87 %
24.08.2018 04:16 16,9 C 15,0 C 16,1 C 93 % 1008,3 hPa 0,0 l/m 0 min 0 min 0 W/m 0,0 km/h (0 Bft) 97,87 %
24.08.2018 04:18 16,9 C 15,0 C 16,1 C 93 % 1008,2 hPa 0,0 l/m 0 min 0 min 0 W/m 0,0 km/h (0 Bft) 97,83 %
24.08.2018 04:20 16,9 C 15,0 C 16,1 C 93 % 1008,3 hPa 0,0 l/m 0 min 0 min 0 W/m 0,0 km/h (0 Bft) 97,87 %
24.08.2018 04:22 16,8 C 15,0 C 16,1 C 93 % 1008,3 hPa 0,0 l/m 0 min 0 min 0 W/m 0,0 km/h (0 Bft) 97,87 %
24.08.2018 04:24 16,8 C 15,0 C 16,1 C 93 % 1008,3 hPa 0,0 l/m 0 min 0 min 0 W/m 0,0 km/h (0 Bft) 93,62 %
24.08.2018 04:26 16,8 C 15,0 C 16,1 C 93 % 1008,3 hPa 0,0 l/m 0 min 0 min 0 W/m 0,0 km/h (0 Bft) 95,74 %
24.08.2018 04:28 16,8 C 15,0 C 16,1 C 93 % 1008,3 hPa 0,0 l/m 0 min 0 min 0 W/m 0,0 km/h (0 Bft) 97,87 %
24.08.2018 04:30 16,8 C 15,0 C 16,1 C 93 % 1008,2 hPa 0,0 l/m 0 min 0 min 0 W/m 0,0 km/h (0 Bft) 97,83 %
24.08.2018 04:32 16,7 C 15,0 C 16,1 C 93 % 1008,2 hPa 0,0 l/m 0 min 0 min 0 W/m 0,0 km/h (0 Bft) 95,74 %
24.08.2018 04:34 16,7 C 15,0 C 16,1 C 93 % 1008,2 hPa 0,0 l/m 0 min 0 min 0 W/m 2,3 km/h (1 Bft) 97,87 %
24.08.2018 04:36 16,7 C 15,0 C 16,1 C 93 % 1008,1 hPa 0,0 l/m 0 min 0 min 0 W/m 2,3 km/h (1 Bft) 97,87 %
24.08.2018 04:38 16,7 C 15,0 C 16,1 C 93 % 1008,2 hPa 0,0 l/m 0 min 0 min 0 W/m 4,5 km/h (1 Bft) 97,87 %
24.08.2018 04:40 16,7 C 15,0 C 16,1 C 93 % 1008,2 hPa 0,0 l/m 0 min 0 min 0 W/m 2,3 km/h (1 Bft) 97,87 %
24.08.2018 04:42 16,6 C 15,0 C 16,1 C 93 % 1008,3 hPa 0,0 l/m 0 min 0 min 0 W/m 2,3 km/h (1 Bft) 93,48 %
24.08.2018 04:44 16,6 C 15,0 C 16,1 C 93 % 1008,3 hPa 0,0 l/m 0 min 0 min 0 W/m 2,3 km/h (1 Bft) 97,87 %
24.08.2018 04:46 16,6 C 15,0 C 16,1 C 93 % 1008,3 hPa 0,0 l/m 0 min 0 min 0 W/m 2,3 km/h (1 Bft) 97,87 %
24.08.2018 04:48 16,6 C 15,0 C 16,1 C 93 % 1008,3 hPa 0,0 l/m 0 min 0 min 0 W/m 2,3 km/h (1 Bft) 97,87 %
24.08.2018 04:50 16,6 C 15,0 C 16,1 C 93 % 1008,2 hPa 0,0 l/m 0 min 0 min 0 W/m 2,3 km/h (1 Bft) 95,74 %
24.08.2018 04:52 16,5 C 15,0 C 16,1 C 93 % 1008,2 hPa 0,0 l/m 0 min 0 min 0 W/m 6,8 km/h (2 Bft) 95,65 %
24.08.2018 04:54 16,5 C 15,0 C 16,1 C 93 % 1008,3 hPa 0,0 l/m 0 min 0 min 0 W/m 6,8 km/h (2 Bft) 95,74 %
24.08.2018 04:56 16,5 C 15,0 C 16,1 C 93 % 1008,2 hPa 0,0 l/m 0 min 0 min 0 W/m 4,5 km/h (1 Bft) 97,87 %
24.08.2018 04:58 16,5 C 15,0 C 16,1 C 93 % 1008,2 hPa 0,0 l/m 0 min 0 min 0 W/m 4,5 km/h (1 Bft) 97,87 %
24.08.2018 05:00 16,5 C 15,0 C 16,1 C 94 % 1008,2 hPa 0,0 l/m 0 min 0 min 0 W/m 2,3 km/h (1 Bft) 95,74 %
24.08.2018 05:02 16,5 C 15,0 C 16,1 C 94 % 1008,2 hPa 0,0 l/m 0 min 0 min 0 W/m 2,3 km/h (1 Bft) 97,87 %
24.08.2018 05:04 16,5 C 15,0 C 16,1 C 94 % 1008,2 hPa 0,0 l/m 0 min 0 min 0 W/m 6,8 km/h (2 Bft) 97,83 %
24.08.2018 05:06 16,5 C 15,0 C 16,1 C 94 % 1008,1 hPa 0,0 l/m 0 min 0 min 0 W/m 4,5 km/h (1 Bft) 97,87 %
24.08.2018 05:08 16,4 C 15,6 C 16,1 C 94 % 1008,2 hPa 0,0 l/m 0 min 0 min 0 W/m 4,5 km/h (1 Bft) 97,87 %
24.08.2018 05:10 16,5 C 15,6 C 16,1 C 94 % 1008,3 hPa 0,0 l/m 0 min 0 min 0 W/m 9,0 km/h (2 Bft) 97,87 %
24.08.2018 05:12 16,5 C 15,6 C 16,1 C 94 % 1008,2 hPa 0,0 l/m 0 min 0 min 0 W/m 4,5 km/h (1 Bft) 97,87 %
24.08.2018 05:14 16,5 C 15,0 C 16,1 C 94 % 1008,2 hPa 0,0 l/m 0 min 0 min 0 W/m 6,8 km/h (2 Bft) 95,74 %
24.08.2018 05:16 16,4 C 15,0 C 16,1 C 94 % 1008,2 hPa 0,0 l/m 0 min 0 min 0 W/m 6,8 km/h (2 Bft) 95,65 %
24.08.2018 05:18 16,5 C 15,0 C 16,1 C 94 % 1008,2 hPa 0,0 l/m 0 min 0 min 0 W/m 9,0 km/h (2 Bft) 97,87 %
24.08.2018 05:20 16,4 C 15,0 C 16,1 C 94 % 1008,1 hPa 0,0 l/m 0 min 0 min 0 W/m 4,5 km/h (1 Bft) 97,87 %
24.08.2018 05:22 16,4 C 15,0 C 16,1 C 94 % 1008,2 hPa 0,0 l/m 0 min 0 min 0 W/m 11,3 km/h (2 Bft) 100,00 %
24.08.2018 05:24 16,4 C 15,0 C 16,1 C 94 % 1008,3 hPa 0,0 l/m 0 min 0 min 0 W/m 4,5 km/h (1 Bft) 100,00 %
24.08.2018 05:26 16,4 C 15,0 C 16,1 C 94 % 1008,3 hPa 0,0 l/m 0 min 0 min 0 W/m 4,5 km/h (1 Bft) 95,74 %
24.08.2018 05:28 16,4 C 15,0 C 16,1 C 94 % 1008,2 hPa 0,0 l/m 0 min 0 min 0 W/m 2,3 km/h (1 Bft) 100,00 %
24.08.2018 05:30 16,4 C 15,0 C 16,1 C 94 % 1008,2 hPa 0,0 l/m 0 min 0 min 0 W/m 4,5 km/h (1 Bft) 100,00 %
24.08.2018 05:32 16,4 C 15,0 C 16,1 C 94 % 1008,2 hPa 0,0 l/m 0 min 0 min 0 W/m 4,5 km/h (1 Bft) 97,87 %
24.08.2018 05:34 16,4 C 15,0 C 16,1 C 94 % 1008,2 hPa 0,0 l/m 0 min 0 min 0 W/m 6,8 km/h (2 Bft) 95,74 %
24.08.2018 05:36 16,4 C 15,0 C 16,1 C 94 % 1008,3 hPa 0,0 l/m 0 min 0 min 0 W/m 6,8 km/h (2 Bft) 100,00 %
24.08.2018 05:38 16,4 C 15,0 C 16,1 C 94 % 1008,3 hPa 0,0 l/m 0 min 0 min 0 W/m 2,3 km/h (1 Bft) 100,00 %
24.08.2018 05:40 16,3 C 15,0 C 16,1 C 94 % 1008,3 hPa 0,0 l/m 0 min 0 min 0 W/m 4,5 km/h (1 Bft) 95,74 %
24.08.2018 05:42 16,3 C 15,0 C 15,6 C 94 % 1008,3 hPa 0,0 l/m 0 min 0 min 0 W/m 9,0 km/h (2 Bft) 100,00 %
24.08.2018 05:44 16,3 C 15,0 C 15,6 C 94 % 1008,3 hPa 0,0 l/m 0 min 0 min 0 W/m 2,3 km/h (1 Bft) 97,92 %
24.08.2018 05:46 16,3 C 15,0 C 15,6 C 94 % 1008,3 hPa 0,0 l/m 0 min 0 min 0 W/m 11,3 km/h (2 Bft) 100,00 %
24.08.2018 05:48 16,3 C 15,0 C 15,6 C 94 % 1008,4 hPa 0,0 l/m 0 min 0 min 0 W/m 9,0 km/h (2 Bft) 97,87 %
24.08.2018 05:50 16,2 C 15,0 C 15,6 C 94 % 1008,4 hPa 0,0 l/m 0 min 0 min 0 W/m 6,8 km/h (2 Bft) 100,00 %
24.08.2018 05:52 16,2 C 15,0 C 15,6 C 94 % 1008,4 hPa 0,0 l/m 0 min 0 min 0 W/m 2,3 km/h (1 Bft) 97,87 %
24.08.2018 05:54 16,2 C 15,0 C 15,6 C 94 % 1008,4 hPa 0,0 l/m 0 min 0 min 0 W/m 6,8 km/h (2 Bft) 97,87 %
24.08.2018 05:56 16,2 C 15,0 C 15,6 C 94 % 1008,4 hPa 0,0 l/m 0 min 0 min 0 W/m 2,3 km/h (1 Bft) 97,87 %
24.08.2018 05:58 16,2 C 15,0 C 15,6 C 94 % 1008,6 hPa 0,0 l/m 0 min 0 min 0 W/m 4,5 km/h (1 Bft) 97,83 %
24.08.2018 06:00 16,2 C 15,0 C 15,6 C 94 % 1008,5 hPa 0,0 l/m 0 min 0 min 0 W/m 6,8 km/h (2 Bft) 97,87 %
24.08.2018 06:02 16,2 C 15,0 C 15,6 C 94 % 1008,5 hPa 0,0 l/m 0 min 0 min 0 W/m 2,3 km/h (1 Bft) 95,83 %
24.08.2018 06:04 16,2 C 15,0 C 15,6 C 94 % 1008,4 hPa 0,0 l/m 0 min 0 min 0 W/m 2,3 km/h (1 Bft) 97,87 %
24.08.2018 06:06 16,1 C 15,0 C 15,6 C 94 % 1008,5 hPa 0,0 l/m 0 min 0 min 0 W/m 6,8 km/h (2 Bft) 97,87 %
24.08.2018 06:08 16,1 C 15,0 C 15,6 C 94 % 1008,5 hPa 0,0 l/m 0 min 0 min 0 W/m 4,5 km/h (1 Bft) 97,87 %
24.08.2018 06:10 16,1 C 15,0 C 15,6 C 94 % 1008,6 hPa 0,0 l/m 0 min 0 min 0 W/m 4,5 km/h (1 Bft) 95,65 %
24.08.2018 06:12 16,1 C 15,0 C 15,6 C 94 % 1008,5 hPa 0,0 l/m 0 min 0 min 0 W/m 6,8 km/h (2 Bft) 97,87 %
24.08.2018 06:14 16,1 C 15,0 C 15,6 C 94 % 1008,4 hPa 0,0 l/m 0 min 0 min 0 W/m 9,0 km/h (2 Bft) 97,87 %
24.08.2018 06:16 16,1 C 15,0 C 15,6 C 94 % 1008,4 hPa 0,0 l/m 0 min 0 min 0 W/m 4,5 km/h (1 Bft) 97,87 %
24.08.2018 06:18 16,1 C 15,6 C 15,6 C 94 % 1008,5 hPa 0,0 l/m 0 min 0 min 0 W/m 6,8 km/h (2 Bft) 97,87 %
24.08.2018 06:20 16,1 C 15,6 C 15,6 C 94 % 1008,6 hPa 0,0 l/m 0 min 0 min 0 W/m 9,0 km/h (2 Bft) 97,87 %
24.08.2018 06:22 16,1 C 15,6 C 15,6 C 94 % 1008,6 hPa 0,0 l/m 0 min 0 min 0 W/m 4,5 km/h (1 Bft) 97,87 %
24.08.2018 06:24 16,1 C 15,6 C 15,6 C 94 % 1008,5 hPa 0,0 l/m 0 min 0 min 0 W/m 4,5 km/h (1 Bft) 97,87 %
24.08.2018 06:26 16,1 C 15,6 C 15,6 C 94 % 1008,5 hPa 0,0 l/m 0 min 0 min 0 W/m 6,8 km/h (2 Bft) 97,87 %
24.08.2018 06:28 16,1 C 15,6 C 15,6 C 94 % 1008,6 hPa 0,0 l/m 0 min 0 min 0 W/m 2,3 km/h (1 Bft) 97,87 %
24.08.2018 06:30 16,1 C 15,6 C 15,6 C 94 % 1008,6 hPa 0,0 l/m 0 min 0 min 0 W/m 4,5 km/h (1 Bft) 95,74 %
24.08.2018 06:32 16,1 C 15,6 C 15,6 C 94 % 1008,5 hPa 0,0 l/m 0 min 0 min 0 W/m 6,8 km/h (2 Bft) 95,74 %
24.08.2018 06:34 16,1 C 15,6 C 15,6 C 94 % 1008,5 hPa 0,0 l/m 0 min 0 min 0 W/m 0,0 km/h (0 Bft) 97,83 %
24.08.2018 06:36 16,1 C 15,6 C 15,6 C 94 % 1008,5 hPa 0,0 l/m 0 min 0 min 0 W/m 0,0 km/h (0 Bft) 97,87 %
24.08.2018 06:38 16,1 C 15,6 C 15,6 C 94 % 1008,5 hPa 0,0 l/m 0 min 0 min 0 W/m 2,3 km/h (1 Bft) 97,87 %
24.08.2018 06:40 16,1 C 15,6 C 15,6 C 94 % 1008,5 hPa 0,0 l/m 0 min 0 min 1 W/m 6,8 km/h (2 Bft) 100,00 %
24.08.2018 06:42 16,1 C 15,6 C 15,6 C 94 % 1008,7 hPa 0,0 l/m 0 min 0 min 5 W/m 6,8 km/h (2 Bft) 100,00 %
24.08.2018 06:44 16,1 C 15,6 C 15,6 C 94 % 1008,6 hPa 0,0 l/m 0 min 0 min 5 W/m 2,3 km/h (1 Bft) 100,00 %
24.08.2018 06:46 16,1 C 15,6 C 15,6 C 94 % 1008,7 hPa 0,0 l/m 0 min 0 min 5 W/m 2,3 km/h (1 Bft) 100,00 %
24.08.2018 06:48 16,1 C 15,6 C 15,6 C 94 % 1008,6 hPa 0,0 l/m 0 min 0 min 7 W/m 4,5 km/h (1 Bft) 100,00 %
24.08.2018 06:50 16,1 C 15,6 C 15,6 C 94 % 1008,6 hPa 0,0 l/m 0 min 0 min 7 W/m 9,0 km/h (2 Bft) 100,00 %
24.08.2018 06:52 16,1 C 15,6 C 15,6 C 94 % 1008,6 hPa 0,0 l/m 0 min 0 min 9 W/m 2,3 km/h (1 Bft) 97,92 %
24.08.2018 06:54 16,0 C 15,6 C 15,6 C 94 % 1008,6 hPa 0,0 l/m 0 min 0 min 11 W/m 6,8 km/h (2 Bft) 100,00 %
24.08.2018 06:56 16,0 C 15,6 C 15,6 C 94 % 1008,6 hPa 0,0 l/m 0 min 0 min 12 W/m 4,5 km/h (1 Bft) 100,00 %
24.08.2018 06:58 16,0 C 15,6 C 15,6 C 94 % 1008,6 hPa 0,0 l/m 0 min 0 min 13 W/m 2,3 km/h (1 Bft) 100,00 %
24.08.2018 07:00 16,0 C 15,6 C 15,6 C 94 % 1008,7 hPa 0,0 l/m 0 min 0 min 12 W/m 2,3 km/h (1 Bft) 100,00 %
24.08.2018 07:02 16,0 C 15,6 C 15,6 C 94 % 1008,7 hPa 0,0 l/m 0 min 0 min 11 W/m 0,0 km/h (0 Bft) 100,00 %
24.08.2018 07:04 16,0 C 15,6 C 15,6 C 94 % 1008,8 hPa 0,0 l/m 0 min 0 min 12 W/m 2,3 km/h (1 Bft) 100,00 %
24.08.2018 07:06 16,1 C 15,6 C 15,6 C 94 % 1008,8 hPa 0,0 l/m 0 min 0 min 12 W/m 6,8 km/h (2 Bft) 97,87 %
24.08.2018 07:08 16,1 C 15,6 C 15,6 C 94 % 1008,7 hPa 0,0 l/m 0 min 0 min 13 W/m 4,5 km/h (1 Bft) 100,00 %
24.08.2018 07:10 16,1 C 15,6 C 15,6 C 94 % 1008,7 hPa 0,0 l/m 0 min 0 min 16 W/m 4,5 km/h (1 Bft) 100,00 %
24.08.2018 07:12 16,1 C 15,6 C 15,6 C 94 % 1008,7 hPa 0,0 l/m 0 min 0 min 18 W/m 2,3 km/h (1 Bft) 100,00 %
24.08.2018 07:14 16,1 C 15,6 C 15,6 C 94 % 1008,7 hPa 0,0 l/m 0 min 0 min 19 W/m 2,3 km/h (1 Bft) 100,00 %
24.08.2018 07:16 16,1 C 15,6 C 15,6 C 94 % 1008,7 hPa 0,0 l/m 0 min 0 min 21 W/m 6,8 km/h (2 Bft) 100,00 %
24.08.2018 07:18 16,1 C 15,6 C 15,6 C 94 % 1008,7 hPa 0,0 l/m 0 min 0 min 22 W/m 4,5 km/h (1 Bft) 97,87 %
24.08.2018 07:20 16,1 C 15,6 C 15,6 C 94 % 1008,6 hPa 0,0 l/m 0 min 0 min 24 W/m 4,5 km/h (1 Bft) 97,62 %
24.08.2018 07:22 16,1 C 15,6 C 15,6 C 94 % 1008,6 hPa 0,0 l/m 0 min 0 min 27 W/m 4,5 km/h (1 Bft) 97,92 %
24.08.2018 07:24 16,1 C 15,6 C 15,6 C 94 % 1008,6 hPa 0,0 l/m 0 min 0 min 30 W/m 4,5 km/h (1 Bft) 95,83 %
24.08.2018 07:26 16,1 C 15,6 C 15,6 C 94 % 1008,6 hPa 0,0 l/m 0 min 0 min 32 W/m 4,5 km/h (1 Bft) 95,74 %
24.08.2018 07:28 16,1 C 15,6 C 15,6 C 94 % 1008,6 hPa 0,0 l/m 0 min 0 min 30 W/m 4,5 km/h (1 Bft) 95,83 %
24.08.2018 07:30 16,1 C 15,6 C 15,6 C 94 % 1008,7 hPa 0,0 l/m 0 min 0 min 28 W/m 2,3 km/h (1 Bft) 93,75 %
24.08.2018 07:32 16,1 C 15,6 C 15,6 C 94 % 1008,7 hPa 0,0 l/m 0 min 0 min 28 W/m 9,0 km/h (2 Bft) 95,65 %
24.08.2018 07:34 16,1 C 15,6 C 15,6 C 94 % 1008,6 hPa 0,0 l/m 0 min 0 min 27 W/m 6,8 km/h (2 Bft) 94,44 %
24.08.2018 07:36 16,1 C 15,6 C 15,6 C 94 % 1008,7 hPa 0,0 l/m 0 min 0 min 28 W/m 2,3 km/h (1 Bft) 95,74 %
24.08.2018 07:38 16,1 C 15,6 C 15,6 C 94 % 1008,8 hPa 0,0 l/m 0 min 0 min 32 W/m 4,5 km/h (1 Bft) 95,83 %
24.08.2018 07:40 16,1 C 15,6 C 15,6 C 94 % 1008,8 hPa 0,0 l/m 0 min 0 min 36 W/m 2,3 km/h (1 Bft) 93,88 %
24.08.2018 07:42 16,1 C 15,6 C 15,6 C 94 % 1008,8 hPa 0,0 l/m 0 min 0 min 34 W/m 4,5 km/h (1 Bft) 95,74 %
24.08.2018 07:44 16,1 C 15,6 C 15,6 C 94 % 1008,8 hPa 0,0 l/m 0 min 0 min 33 W/m 6,8 km/h (2 Bft) 95,74 %
24.08.2018 07:46 16,1 C 15,6 C 15,6 C 94 % 1008,8 hPa 0,0 l/m 0 min 0 min 33 W/m 4,5 km/h (1 Bft) 95,00 %
24.08.2018 07:48 16,1 C 15,6 C 15,6 C 94 % 1008,8 hPa 0,0 l/m 0 min 0 min 32 W/m 11,3 km/h (2 Bft) 95,83 %
24.08.2018 07:50 16,1 C 15,6 C 15,6 C 94 % 1008,8 hPa 0,0 l/m 0 min 0 min 29 W/m 2,3 km/h (1 Bft) 96,67 %
24.08.2018 07:52 16,1 C 15,6 C 15,6 C 94 % 1008,8 hPa 0,0 l/m 0 min 0 min 32 W/m 2,3 km/h (1 Bft) 94,44 %
24.08.2018 07:54 16,1 C 15,6 C 15,6 C 94 % 1008,8 hPa 0,0 l/m 0 min 0 min 34 W/m 9,0 km/h (2 Bft) 95,83 %
24.08.2018 07:56 16,1 C 15,6 C 15,6 C 94 % 1008,8 hPa 0,0 l/m 0 min 0 min 40 W/m 4,5 km/h (1 Bft) 93,62 %
24.08.2018 07:58 16,1 C 15,6 C 15,6 C 94 % 1008,8 hPa 0,0 l/m 0 min 0 min 43 W/m 4,5 km/h (1 Bft) 93,75 %
24.08.2018 08:00 16,1 C 15,6 C 15,6 C 94 % 1008,8 hPa 0,0 l/m 0 min 0 min 45 W/m 6,8 km/h (2 Bft) 95,74 %
24.08.2018 08:02 16,1 C 15,6 C 15,6 C 94 % 1008,9 hPa 0,0 l/m 0 min 0 min 46 W/m 11,3 km/h (2 Bft) 95,45 %
24.08.2018 08:04 16,1 C 16,1 C 15,6 C 94 % 1008,9 hPa 0,0 l/m 0 min 0 min 46 W/m 9,0 km/h (2 Bft) 97,87 %
24.08.2018 08:06 16,1 C 16,1 C 15,6 C 93 % 1008,9 hPa 0,0 l/m 0 min 0 min 46 W/m 9,0 km/h (2 Bft) 95,83 %
24.08.2018 08:08 16,1 C 16,1 C 15,6 C 93 % 1008,8 hPa 0,0 l/m 0 min 0 min 44 W/m 4,5 km/h (1 Bft) 95,83 %
24.08.2018 08:10 16,2 C 16,1 C 15,6 C 93 % 1008,9 hPa 0,0 l/m 0 min 0 min 43 W/m 0,0 km/h (0 Bft) 95,74 %
24.08.2018 08:12 16,2 C 16,1 C 15,6 C 93 % 1009,0 hPa 0,0 l/m 0 min 0 min 38 W/m 9,0 km/h (2 Bft) 95,74 %
24.08.2018 08:14 16,2 C 16,1 C 15,6 C 93 % 1009,0 hPa 0,0 l/m 0 min 0 min 29 W/m 4,5 km/h (1 Bft) 97,87 %
24.08.2018 08:16 16,2 C 16,1 C 15,6 C 93 % 1009,1 hPa 0,0 l/m 0 min 0 min 18 W/m 4,5 km/h (1 Bft) 95,74 %
24.08.2018 08:18 16,2 C 16,1 C 15,6 C 93 % 1009,0 hPa 0,0 l/m 0 min 0 min 21 W/m 11,3 km/h (2 Bft) 97,87 %
24.08.2018 08:20 16,2 C 16,1 C 15,6 C 93 % 1009,0 hPa 0,0 l/m 0 min 0 min 32 W/m 4,5 km/h (1 Bft) 97,62 %
24.08.2018 08:22 16,2 C 16,1 C 15,6 C 93 % 1009,0 hPa 0,0 l/m 0 min 0 min 35 W/m 4,5 km/h (1 Bft) 93,62 %
24.08.2018 08:24 16,2 C 16,1 C 15,6 C 93 % 1009,1 hPa 0,0 l/m 0 min 0 min 35 W/m 6,8 km/h (2 Bft) 95,83 %
24.08.2018 08:26 16,2 C 15,6 C 15,6 C 93 % 1009,1 hPa 0,0 l/m 0 min 0 min 30 W/m 9,0 km/h (2 Bft) 93,75 %
24.08.2018 08:28 16,3 C 16,1 C 15,6 C 93 % 1009,1 hPa 0,0 l/m 0 min 0 min 25 W/m 9,0 km/h (2 Bft) 95,83 %
24.08.2018 08:30 16,3 C 16,1 C 15,6 C 93 % 1009,1 hPa 0,0 l/m 0 min 0 min 25 W/m 4,5 km/h (1 Bft) 95,83 %
24.08.2018 08:32 16,3 C 16,1 C 15,6 C 93 % 1009,1 hPa 0,0 l/m 0 min 0 min 32 W/m 6,8 km/h (2 Bft) 97,87 %
24.08.2018 08:34 16,3 C 16,1 C 15,6 C 93 % 1009,2 hPa 0,0 l/m 0 min 0 min 42 W/m 11,3 km/h (2 Bft) 97,87 %
24.08.2018 08:36 16,3 C 16,1 C 15,6 C 93 % 1009,2 hPa 0,0 l/m 0 min 0 min 51 W/m 4,5 km/h (1 Bft) 97,87 %
24.08.2018 08:38 16,3 C 16,1 C 15,6 C 93 % 1009,2 hPa 0,0 l/m 0 min 0 min 55 W/m 4,5 km/h (1 Bft) 97,62 %
24.08.2018 08:40 16,3 C 16,1 C 16,1 C 93 % 1009,2 hPa 0,0 l/m 0 min 0 min 56 W/m 6,8 km/h (2 Bft) 97,92 %
24.08.2018 08:42 16,3 C 16,1 C 16,1 C 93 % 1009,2 hPa 0,0 l/m 0 min 0 min 60 W/m 6,8 km/h (2 Bft) 97,96 %
24.08.2018 08:44 16,3 C 16,1 C 16,1 C 92 % 1009,3 hPa 0,0 l/m 0 min 0 min 56 W/m 9,0 km/h (2 Bft) 95,83 %
24.08.2018 08:46 16,3 C 16,1 C 16,1 C 92 % 1009,4 hPa 0,0 l/m 0 min 0 min 50 W/m 6,8 km/h (2 Bft) 97,92 %
24.08.2018 08:48 16,3 C 16,1 C 16,1 C 92 % 1009,4 hPa 0,0 l/m 0 min 0 min 41 W/m 4,5 km/h (1 Bft) 89,58 %
24.08.2018 08:50 16,4 C 16,1 C 16,1 C 92 % 1009,4 hPa 0,0 l/m 0 min 0 min 44 W/m 4,5 km/h (1 Bft) 97,92 %
24.08.2018 08:52 16,4 C 16,1 C 16,1 C 92 % 1009,4 hPa 0,0 l/m 0 min 0 min 47 W/m 9,0 km/h (2 Bft) 97,96 %
24.08.2018 08:54 16,4 C 16,1 C 15,6 C 92 % 1009,3 hPa 0,0 l/m 0 min 0 min 44 W/m 6,8 km/h (2 Bft) 95,74 %
24.08.2018 08:56 16,4 C 16,1 C 15,6 C 92 % 1009,4 hPa 0,0 l/m 0 min 0 min 46 W/m 6,8 km/h (2 Bft) 97,87 %
24.08.2018 08:58 16,4 C 16,1 C 15,6 C 92 % 1009,4 hPa 0,0 l/m 0 min 0 min 45 W/m 9,0 km/h (2 Bft) 97,92 %
24.08.2018 09:00 16,4 C 16,1 C 15,6 C 92 % 1009,5 hPa 0,0 l/m 0 min 0 min 46 W/m 6,8 km/h (2 Bft) 97,96 %
24.08.2018 09:02 16,4 C 16,1 C 15,6 C 92 % 1009,4 hPa 0,0 l/m 0 min 2 min 50 W/m 6,8 km/h (2 Bft) 97,87 %
24.08.2018 09:04 16,4 C 16,1 C 15,6 C 92 % 1009,4 hPa 0,0 l/m 0 min 0 min 56 W/m 4,5 km/h (1 Bft) 97,56 %
24.08.2018 09:06 16,4 C 16,1 C 15,6 C 92 % 1009,4 hPa 0,0 l/m 0 min 0 min 56 W/m 9,0 km/h (2 Bft) 97,87 %
24.08.2018 09:08 16,4 C 16,1 C 15,6 C 92 % 1009,4 hPa 0,0 l/m 0 min 0 min 56 W/m 11,3 km/h (2 Bft) 97,96 %
24.08.2018 09:10 16,5 C 16,1 C 15,6 C 92 % 1009,4 hPa 0,0 l/m 0 min 0 min 55 W/m 4,5 km/h (1 Bft) 97,87 %
24.08.2018 09:12 16,5 C 16,1 C 15,6 C 92 % 1009,6 hPa 0,0 l/m 0 min 0 min 53 W/m 2,3 km/h (1 Bft) 97,92 %
24.08.2018 09:14 16,5 C 16,1 C 15,6 C 92 % 1009,5 hPa 0,0 l/m 0 min 2 min 45 W/m 2,3 km/h (1 Bft) 97,22 %
24.08.2018 09:16 16,5 C 16,1 C 15,6 C 92 % 1009,5 hPa 0,0 l/m 0 min 0 min 39 W/m 11,3 km/h (2 Bft) 96,67 %
24.08.2018 09:18 16,5 C 15,6 C 15,6 C 92 % 1009,6 hPa 0,0 l/m 0 min 2 min 37 W/m 2,3 km/h (1 Bft) 100,00 %
24.08.2018 09:20 16,5 C 15,6 C 15,6 C 92 % 1009,6 hPa 0,0 l/m 0 min 0 min 42 W/m 2,3 km/h (1 Bft) 96,61 %
24.08.2018 09:22 16,5 C 15,6 C 15,6 C 92 % 1009,6 hPa 0,0 l/m 0 min 0 min 40 W/m 6,8 km/h (2 Bft) 97,87 %
24.08.2018 09:24 16,5 C 15,6 C 15,6 C 92 % 1009,6 hPa 0,0 l/m 0 min 2 min 35 W/m 4,5 km/h (1 Bft) 97,62 %
24.08.2018 09:26 16,5 C 15,6 C 15,6 C 92 % 1009,5 hPa 0,0 l/m 0 min 2 min 32 W/m 4,5 km/h (1 Bft) 100,00 %
24.08.2018 09:28 16,5 C 15,6 C 15,6 C 92 % 1009,6 hPa 0,0 l/m 0 min 2 min 32 W/m 4,5 km/h (1 Bft) 100,00 %
24.08.2018 09:30 16,5 C 15,6 C 15,6 C 92 % 1009,7 hPa 0,0 l/m 0 min 2 min 24 W/m 9,0 km/h (2 Bft) 98,31 %
24.08.2018 09:32 16,5 C 15,0 C 15,6 C 92 % 1009,7 hPa 0,0 l/m 0 min 2 min 20 W/m 4,5 km/h (1 Bft) 100,00 %
24.08.2018 09:34 16,5 C 15,0 C 15,0 C 92 % 1009,6 hPa 0,0 l/m 0 min 2 min 34 W/m 2,3 km/h (1 Bft) 100,00 %
24.08.2018 09:36 16,4 C 15,0 C 15,0 C 92 % 1009,6 hPa 0,0 l/m 0 min 2 min 66 W/m 6,8 km/h (2 Bft) 100,00 %
24.08.2018 09:38 16,4 C 15,0 C 15,0 C 92 % 1009,6 hPa 0,0 l/m 0 min 2 min 95 W/m 4,5 km/h (1 Bft) 100,00 %
24.08.2018 09:40 16,5 C 15,0 C 15,0 C 92 % 1009,7 hPa 0,0 l/m 0 min 2 min 83 W/m 6,8 km/h (2 Bft) 100,00 %
24.08.2018 09:42 16,5 C 15,0 C 15,0 C 92 % 1009,8 hPa 0,0 l/m 0 min 0 min 70 W/m 4,5 km/h (1 Bft) 97,87 %
24.08.2018 09:44 16,5 C 15,6 C 15,6 C 92 % 1009,8 hPa 0,0 l/m 0 min 0 min 80 W/m 4,5 km/h (1 Bft) 100,00 %
24.08.2018 09:46 16,5 C 15,6 C 15,6 C 92 % 1009,8 hPa 0,0 l/m 0 min 0 min 72 W/m 6,8 km/h (2 Bft) 95,74 %
24.08.2018 09:48 16,5 C 15,6 C 15,6 C 92 % 1009,8 hPa 0,0 l/m 0 min 2 min 65 W/m 6,8 km/h (2 Bft) 100,00 %
24.08.2018 09:50 16,5 C 15,0 C 15,0 C 92 % 1009,8 hPa 0,0 l/m 0 min 2 min 62 W/m 6,8 km/h (2 Bft) 100,00 %
24.08.2018 09:52 16,5 C 15,0 C 15,0 C 92 % 1009,7 hPa 0,0 l/m 0 min 2 min 63 W/m 4,5 km/h (1 Bft) 100,00 %
24.08.2018 09:54 16,5 C 15,0 C 15,0 C 93 % 1009,9 hPa 0,0 l/m 0 min 2 min 55 W/m 6,8 km/h (2 Bft) 100,00 %
24.08.2018 09:56 16,5 C 15,0 C 14,4 C 92 % 1010,0 hPa 0,0 l/m 0 min 0 min 30 W/m 9,0 km/h (2 Bft) 100,00 %
24.08.2018 09:58 16,4 C 15,0 C 14,4 C 92 % 1010,0 hPa 0,0 l/m 0 min 0 min 21 W/m 9,0 km/h (2 Bft) 100,00 %
24.08.2018 10:00 16,4 C 14,4 C 14,4 C 92 % 1010,0 hPa 0,0 l/m 0 min 0 min 25 W/m 15,8 km/h (3 Bft) 100,00 %
24.08.2018 10:02 16,3 C 14,4 C 14,4 C 92 % 1010,1 hPa 0,0 l/m 0 min 0 min 26 W/m 9,0 km/h (2 Bft) 100,00 %
24.08.2018 10:04 16,2 C 14,4 C 14,4 C 92 % 1010,1 hPa 0,0 l/m 0 min 0 min 25 W/m 9,0 km/h (2 Bft) 100,00 %
24.08.2018 10:06 16,1 C 13,9 C 14,4 C 91 % 1010,1 hPa 0,0 l/m 0 min 0 min 22 W/m 13,5 km/h (3 Bft) 100,00 %
24.08.2018 10:08 16,0 C 13,9 C 13,9 C 91 % 1010,1 hPa 0,0 l/m 0 min 0 min 19 W/m 15,8 km/h (3 Bft) 100,00 %
24.08.2018 10:10 15,9 C 13,9 C 13,9 C 90 % 1010,1 hPa 0,0 l/m 0 min 0 min 22 W/m 20,3 km/h (4 Bft) 100,00 %
24.08.2018 10:12 15,8 C 13,9 C 14,4 C 90 % 1010,2 hPa 0,0 l/m 0 min 0 min 41 W/m 6,8 km/h (2 Bft) 100,00 %
24.08.2018 10:14 15,8 C 14,4 C 14,4 C 90 % 1010,3 hPa 0,0 l/m 0 min 0 min 73 W/m 4,5 km/h (1 Bft) 97,92 %
24.08.2018 10:16 15,8 C 14,4 C 14,4 C 90 % 1010,2 hPa 0,0 l/m 0 min 0 min 76 W/m 6,8 km/h (2 Bft) 97,92 %
24.08.2018 10:18 15,8 C 14,4 C 14,4 C 90 % 1010,2 hPa 0,0 l/m 0 min 0 min 81 W/m 6,8 km/h (2 Bft) 97,92 %
24.08.2018 10:20 15,7 C 14,4 C 14,4 C 90 % 1010,2 hPa 0,0 l/m 0 min 0 min 66 W/m 9,0 km/h (2 Bft) 97,87 %
24.08.2018 10:22 15,7 C 14,4 C 15,0 C 90 % 1010,2 hPa 0,0 l/m 0 min 0 min 53 W/m 6,8 km/h (2 Bft) 95,74 %
24.08.2018 10:24 15,7 C 14,4 C 15,0 C 89 % 1010,3 hPa 0,0 l/m 0 min 0 min 61 W/m 15,8 km/h (3 Bft) 97,87 %
24.08.2018 10:26 15,7 C 14,4 C 15,0 C 89 % 1010,3 hPa 0,0 l/m 0 min 0 min 117 W/m 6,8 km/h (2 Bft) 97,62 %
24.08.2018 10:28 15,7 C 15,0 C 15,0 C 89 % 1010,3 hPa 0,0 l/m 0 min 0 min 122 W/m 13,5 km/h (3 Bft) 97,92 %
24.08.2018 10:30 15,7 C 15,0 C 15,0 C 89 % 1010,3 hPa 0,0 l/m 0 min 0 min 102 W/m 9,0 km/h (2 Bft) 95,92 %
24.08.2018 10:32 15,7 C 15,0 C 15,0 C 89 % 1010,3 hPa 0,0 l/m 0 min 0 min 108 W/m 6,8 km/h (2 Bft) 97,92 %
24.08.2018 10:34 15,7 C 15,6 C 15,0 C 89 % 1010,3 hPa 0,0 l/m 0 min 0 min 99 W/m 13,5 km/h (3 Bft) 97,92 %
24.08.2018 10:36 15,8 C 15,6 C 15,0 C 90 % 1010,3 hPa 0,0 l/m 0 min 0 min 124 W/m 6,8 km/h (2 Bft) 97,92 %
24.08.2018 10:38 15,8 C 15,6 C 15,0 C 90 % 1010,3 hPa 0,0 l/m 0 min 0 min 167 W/m 4,5 km/h (1 Bft) 95,74 %
24.08.2018 10:40 15,8 C 16,1 C 15,6 C 90 % 1010,3 hPa 0,0 l/m 0 min 0 min 211 W/m 9,0 km/h (2 Bft) 97,30 %
24.08.2018 10:42 15,8 C 16,1 C 15,6 C 90 % 1010,4 hPa 0,0 l/m 0 min 0 min 171 W/m 6,8 km/h (2 Bft) 96,67 %
24.08.2018 10:44 15,9 C 16,1 C 15,6 C 90 % 1010,4 hPa 0,0 l/m 0 min 0 min 130 W/m 13,5 km/h (3 Bft) 97,22 %
24.08.2018 10:46 15,9 C 16,1 C 15,6 C 90 % 1010,4 hPa 0,0 l/m 0 min 0 min 131 W/m 11,3 km/h (2 Bft) 95,92 %
24.08.2018 10:48 16,0 C 16,1 C 15,6 C 91 % 1010,4 hPa 0,0 l/m 0 min 0 min 101 W/m 11,3 km/h (2 Bft) 95,83 %
24.08.2018 10:50 16,0 C 16,1 C 15,6 C 90 % 1010,5 hPa 0,0 l/m 0 min 0 min 88 W/m 13,5 km/h (3 Bft) 97,92 %
24.08.2018 10:52 16,0 C 16,1 C 15,6 C 90 % 1010,5 hPa 0,0 l/m 0 min 0 min 98 W/m 13,5 km/h (3 Bft) 97,92 %
24.08.2018 10:54 16,0 C 16,1 C 15,6 C 90 % 1010,6 hPa 0,0 l/m 0 min 0 min 124 W/m 15,8 km/h (3 Bft) 97,92 %
24.08.2018 10:56 16,0 C 17,2 C 15,6 C 89 % 1010,7 hPa 0,0 l/m 0 min 0 min 201 W/m 11,3 km/h (2 Bft) 95,83 %
24.08.2018 10:58 16,1 C 20,6 C 15,6 C 89 % 1010,6 hPa 0,0 l/m 2 min 0 min 494 W/m 6,8 km/h (2 Bft) 97,92 %
24.08.2018 11:00 16,2 C 21,7 C 16,1 C 89 % 1010,5 hPa 0,0 l/m 2 min 0 min 581 W/m 9,0 km/h (2 Bft) 97,37 %
24.08.2018 11:02 16,3 C 20,6 C 16,1 C 89 % 1010,6 hPa 0,0 l/m 0 min 0 min 216 W/m 11,3 km/h (2 Bft) 97,87 %
24.08.2018 11:04 16,4 C 20,0 C 16,1 C 88 % 1010,6 hPa 0,0 l/m 0 min 0 min 205 W/m 13,5 km/h (3 Bft) 97,96 %
24.08.2018 11:06 16,5 C 20,0 C 16,1 C 88 % 1010,7 hPa 0,0 l/m 0 min 0 min 249 W/m 4,5 km/h (1 Bft) 97,87 %
24.08.2018 11:08 16,6 C 21,1 C 16,1 C 87 % 1010,7 hPa 0,0 l/m 2 min 0 min 368 W/m 6,8 km/h (2 Bft) 97,87 %
24.08.2018 11:10 16,7 C 21,7 C 16,7 C 86 % 1010,7 hPa 0,0 l/m 2 min 0 min 541 W/m 11,3 km/h (2 Bft) 95,74 %
24.08.2018 11:12 16,8 C 22,2 C 16,7 C 83 % 1010,7 hPa 0,0 l/m 2 min 0 min 572 W/m 11,3 km/h (2 Bft) 95,74 %
24.08.2018 11:14 16,9 C 21,1 C 16,7 C 81 % 1010,7 hPa 0,0 l/m 2 min 0 min 527 W/m 11,3 km/h (2 Bft) 97,87 %
24.08.2018 11:16 17,1 C 20,0 C 16,7 C 80 % 1010,7 hPa 0,0 l/m 0 min 0 min 178 W/m 15,8 km/h (3 Bft) 92,68 %
24.08.2018 11:18 17,2 C 21,1 C 16,7 C 78 % 1010,7 hPa 0,0 l/m 0 min 0 min 252 W/m 11,3 km/h (2 Bft) 95,83 %
24.08.2018 11:20 17,3 C 22,8 C 16,7 C 78 % 1010,7 hPa 0,0 l/m 2 min 0 min 556 W/m 11,3 km/h (2 Bft) 95,83 %
24.08.2018 11:22 17,6 C 23,3 C 16,7 C 78 % 1010,8 hPa 0,0 l/m 2 min 0 min 580 W/m 15,8 km/h (3 Bft) 95,92 %
24.08.2018 11:24 17,8 C 23,9 C 16,7 C 77 % 1010,8 hPa 0,0 l/m 2 min 0 min 457 W/m 20,3 km/h (4 Bft) 97,92 %
24.08.2018 11:26 17,9 C 22,8 C 16,7 C 77 % 1010,8 hPa 0,0 l/m 2 min 0 min 413 W/m 11,3 km/h (2 Bft) 95,83 %
24.08.2018 11:28 18,1 C 25,0 C 17,2 C 77 % 1010,8 hPa 0,0 l/m 2 min 0 min 420 W/m 11,3 km/h (2 Bft) 95,74 %
24.08.2018 11:30 18,3 C 25,0 C 17,2 C 77 % 1010,8 hPa 0,0 l/m 2 min 0 min 718 W/m 6,8 km/h (2 Bft) 97,92 %
24.08.2018 11:32 18,4 C 23,3 C 17,2 C 77 % 1010,8 hPa 0,0 l/m 2 min 0 min 477 W/m 11,3 km/h (2 Bft) 95,74 %
24.08.2018 11:34 18,6 C 25,0 C 17,2 C 76 % 1010,8 hPa 0,0 l/m 2 min 0 min 643 W/m 9,0 km/h (2 Bft) 95,74 %
24.08.2018 11:36 18,7 C 25,0 C 17,8 C 75 % 1010,9 hPa 0,0 l/m 2 min 0 min 766 W/m 11,3 km/h (2 Bft) 95,24 %
24.08.2018 11:38 18,9 C 26,7 C 17,8 C 75 % 1010,8 hPa 0,0 l/m 2 min 0 min 808 W/m 13,5 km/h (3 Bft) 93,62 %
24.08.2018 11:40 19,1 C 24,4 C 17,8 C 70 % 1010,8 hPa 0,0 l/m 2 min 0 min 695 W/m 22,5 km/h (4 Bft) 95,83 %
24.08.2018 11:42 19,1 C 21,7 C 17,2 C 68 % 1010,9 hPa 0,0 l/m 0 min 0 min 313 W/m 22,5 km/h (4 Bft) 93,88 %
24.08.2018 11:44 19,1 C 21,1 C 17,2 C 66 % 1011,0 hPa 0,0 l/m 0 min 0 min 146 W/m 15,8 km/h (3 Bft) 95,83 %
24.08.2018 11:46 19,1 C 21,7 C 17,2 C 65 % 1010,9 hPa 0,0 l/m 0 min 0 min 142 W/m 9,0 km/h (2 Bft) 95,83 %
24.08.2018 11:48 19,1 C 23,9 C 17,2 C 67 % 1011,0 hPa 0,0 l/m 2 min 0 min 613 W/m 11,3 km/h (2 Bft) 93,62 %
24.08.2018 11:50 19,2 C 25,0 C 17,2 C 67 % 1011,0 hPa 0,0 l/m 2 min 0 min 685 W/m 9,0 km/h (2 Bft) 95,83 %
24.08.2018 11:52 19,3 C 26,1 C 17,8 C 66 % 1010,9 hPa 0,0 l/m 2 min 0 min 705 W/m 24,8 km/h (4 Bft) 95,74 %
24.08.2018 11:54 19,4 C 25,6 C 17,8 C 66 % 1010,9 hPa 0,0 l/m 2 min 0 min 766 W/m 11,3 km/h (2 Bft) 93,62 %
24.08.2018 11:56 19,5 C 24,4 C 17,8 C 64 % 1010,9 hPa 0,0 l/m 2 min 0 min 479 W/m 11,3 km/h (2 Bft) 95,24 %
24.08.2018 11:58 19,6 C 24,4 C 17,8 C 64 % 1010,9 hPa 0,0 l/m 0 min 0 min 292 W/m 11,3 km/h (2 Bft) 95,83 %
24.08.2018 12:00 19,6 C 25,6 C 17,8 C 64 % 1010,9 hPa 0,0 l/m 2 min 0 min 640 W/m 9,0 km/h (2 Bft) 95,92 %
24.08.2018 12:02 19,7 C 26,1 C 17,8 C 64 % 1010,9 hPa 0,0 l/m 2 min 0 min 694 W/m 11,3 km/h (2 Bft) 89,80 %
24.08.2018 12:04 19,8 C 25,6 C 17,8 C 64 % 1010,9 hPa 0,0 l/m 2 min 0 min 676 W/m 11,3 km/h (2 Bft) 97,87 %
24.08.2018 12:06 19,9 C 23,9 C 17,8 C 61 % 1011,0 hPa 0,0 l/m 2 min 0 min 729 W/m 11,3 km/h (2 Bft) 95,74 %
24.08.2018 12:08 19,9 C 23,9 C 17,8 C 60 % 1011,0 hPa 0,0 l/m 2 min 0 min 729 W/m 15,8 km/h (3 Bft) 95,74 %
24.08.2018 12:10 20,0 C 25,0 C 17,8 C 60 % 1010,9 hPa 0,0 l/m 2 min 0 min 632 W/m 6,8 km/h (2 Bft) 97,62 %
24.08.2018 12:12 20,1 C 25,6 C 17,8 C 60 % 1011,0 hPa 0,0 l/m 2 min 0 min 646 W/m 9,0 km/h (2 Bft) 97,92 %
24.08.2018 12:14 20,2 C 26,7 C 18,3 C 60 % 1010,9 hPa 0,0 l/m 2 min 0 min 719 W/m 9,0 km/h (2 Bft) 97,87 %
24.08.2018 12:16 20,3 C 26,7 C 18,3 C 60 % 1010,9 hPa 0,0 l/m 2 min 0 min 739 W/m 11,3 km/h (2 Bft) 97,92 %
24.08.2018 12:18 20,3 C 25,6 C 18,3 C 60 % 1010,9 hPa 0,0 l/m 2 min 0 min 744 W/m 9,0 km/h (2 Bft) 95,83 %
24.08.2018 12:20 20,4 C 27,2 C 18,3 C 60 % 1010,9 hPa 0,0 l/m 2 min 0 min 774 W/m 6,8 km/h (2 Bft) 97,92 %
24.08.2018 12:22 20,6 C 28,3 C 18,3 C 62 % 1010,9 hPa 0,0 l/m 2 min 0 min 790 W/m 9,0 km/h (2 Bft) 97,14 %
24.08.2018 12:24 20,8 C 28,3 C 18,9 C 63 % 1010,9 hPa 0,0 l/m 2 min 0 min 724 W/m 6,8 km/h (2 Bft) 97,92 %
24.08.2018 12:26 20,9 C 27,2 C 18,9 C 62 % 1010,9 hPa 0,0 l/m 0 min 0 min 186 W/m 11,3 km/h (2 Bft) 95,74 %
24.08.2018 12:28 21,0 C 24,4 C 18,9 C 62 % 1010,9 hPa 0,0 l/m 0 min 0 min 181 W/m 11,3 km/h (2 Bft) 97,92 %
24.08.2018 12:30 21,1 C 26,1 C 18,9 C 62 % 1010,9 hPa 0,0 l/m 0 min 0 min 265 W/m 11,3 km/h (2 Bft) 97,87 %
24.08.2018 12:32 21,2 C 27,2 C 18,9 C 61 % 1011,0 hPa 0,0 l/m 0 min 0 min 226 W/m 9,0 km/h (2 Bft) 97,92 %
24.08.2018 12:34 21,2 C 25,0 C 18,9 C 59 % 1011,0 hPa 0,0 l/m 0 min 0 min 185 W/m 11,3 km/h (2 Bft) 97,87 %
24.08.2018 12:36 21,2 C 25,6 C 18,3 C 56 % 1010,9 hPa 0,0 l/m 0 min 0 min 141 W/m 9,0 km/h (2 Bft) 95,24 %
24.08.2018 12:38 21,3 C 27,2 C 18,3 C 57 % 1010,9 hPa 0,0 l/m 0 min 0 min 245 W/m 11,3 km/h (2 Bft) 97,92 %
24.08.2018 12:40 21,3 C 27,8 C 18,9 C 58 % 1010,9 hPa 0,0 l/m 0 min 0 min 136 W/m 9,0 km/h (2 Bft) 95,74 %
24.08.2018 12:42 21,4 C 27,8 C 18,9 C 57 % 1010,9 hPa 0,0 l/m 0 min 0 min 131 W/m 15,8 km/h (3 Bft) 97,96 %
24.08.2018 12:44 21,4 C 27,2 C 18,9 C 57 % 1010,9 hPa 0,0 l/m 0 min 0 min 137 W/m 11,3 km/h (2 Bft) 97,92 %
24.08.2018 12:46 21,5 C 24,4 C 18,3 C 57 % 1011,0 hPa 0,0 l/m 0 min 0 min 116 W/m 9,0 km/h (2 Bft) 97,92 %
24.08.2018 12:48 21,4 C 21,7 C 18,3 C 57 % 1010,9 hPa 0,0 l/m 0 min 0 min 99 W/m 6,8 km/h (2 Bft) 97,87 %
24.08.2018 12:50 21,4 C 23,9 C 18,3 C 57 % 1010,9 hPa 0,0 l/m 0 min 0 min 150 W/m 6,8 km/h (2 Bft) 97,92 %
24.08.2018 12:52 21,3 C 23,3 C 18,3 C 57 % 1010,8 hPa 0,0 l/m 0 min 0 min 164 W/m 6,8 km/h (2 Bft) 95,83 %
24.08.2018 12:54 21,3 C 23,3 C 18,3 C 56 % 1010,8 hPa 0,0 l/m 0 min 0 min 165 W/m 11,3 km/h (2 Bft) 97,92 %
24.08.2018 12:56 21,2 C 25,0 C 18,3 C 56 % 1010,9 hPa 0,0 l/m 0 min 0 min 169 W/m 13,5 km/h (3 Bft) 97,87 %
24.08.2018 12:58 21,2 C 25,0 C 18,9 C 57 % 1010,8 hPa 0,0 l/m 2 min 0 min 437 W/m 9,0 km/h (2 Bft) 97,92 %
24.08.2018 13:00 21,2 C 23,3 C 18,9 C 56 % 1010,8 hPa 0,0 l/m 0 min 0 min 337 W/m 9,0 km/h (2 Bft) 97,92 %
24.08.2018 13:02 21,2 C 21,7 C 18,3 C 56 % 1010,9 hPa 0,0 l/m 0 min 0 min 254 W/m 18,0 km/h (3 Bft) 97,87 %
24.08.2018 13:04 21,1 C 20,6 C 18,3 C 56 % 1010,8 hPa 0,0 l/m 0 min 0 min 188 W/m 9,0 km/h (2 Bft) 97,62 %
24.08.2018 13:06 21,0 C 21,1 C 18,3 C 55 % 1010,7 hPa 0,0 l/m 0 min 0 min 192 W/m 15,8 km/h (3 Bft) 95,83 %
24.08.2018 13:08 20,9 C 22,2 C 18,9 C 56 % 1010,8 hPa 0,0 l/m 0 min 0 min 192 W/m 13,5 km/h (3 Bft) 97,87 %
24.08.2018 13:10 20,9 C 23,3 C 19,4 C 56 % 1010,8 hPa 0,0 l/m 0 min 0 min 223 W/m 9,0 km/h (2 Bft) 97,92 %
24.08.2018 13:12 21,0 C 22,8 C 19,4 C 56 % 1010,8 hPa 0,0 l/m 0 min 0 min 260 W/m 11,3 km/h (2 Bft) 95,83 %
24.08.2018 13:14 21,0 C 22,8 C 19,4 C 57 % 1010,8 hPa 0,0 l/m 0 min 0 min 248 W/m 11,3 km/h (2 Bft) 97,92 %
24.08.2018 13:16 21,1 C 22,2 C 19,4 C 56 % 1010,8 hPa 0,0 l/m 0 min 0 min 223 W/m 13,5 km/h (3 Bft) 97,92 %
24.08.2018 13:18 21,1 C 21,7 C 18,9 C 56 % 1010,9 hPa 0,0 l/m 0 min 0 min 219 W/m 11,3 km/h (2 Bft) 97,87 %
24.08.2018 13:20 21,0 C 21,1 C 18,9 C 56 % 1010,8 hPa 0,0 l/m 0 min 0 min 177 W/m 6,8 km/h (2 Bft) 95,74 %
24.08.2018 13:22 21,0 C 21,7 C 18,9 C 57 % 1010,9 hPa 0,0 l/m 0 min 0 min 208 W/m 9,0 km/h (2 Bft) 95,65 %
24.08.2018 13:24 21,0 C 21,7 C 18,9 C 56 % 1010,9 hPa 0,0 l/m 2 min 0 min 448 W/m 13,5 km/h (3 Bft) 97,62 %
24.08.2018 13:26 21,0 C 22,2 C 19,4 C 57 % 1010,9 hPa 0,0 l/m 2 min 0 min 522 W/m 13,5 km/h (3 Bft) 97,92 %
24.08.2018 13:28 21,1 C 22,2 C 19,4 C 57 % 1010,8 hPa 0,0 l/m 2 min 0 min 696 W/m 9,0 km/h (2 Bft) 97,92 %
24.08.2018 13:30 21,1 C 22,2 C 19,4 C 57 % 1010,9 hPa 0,0 l/m 2 min 0 min 879 W/m 9,0 km/h (2 Bft) 97,92 %
24.08.2018 13:32 21,2 C 23,3 C 19,4 C 58 % 1010,7 hPa 0,0 l/m 2 min 0 min 903 W/m 6,8 km/h (2 Bft) 97,30 %
24.08.2018 13:34 21,2 C 22,2 C 19,4 C 57 % 1010,7 hPa 0,0 l/m 2 min 0 min 623 W/m 11,3 km/h (2 Bft) 97,92 %
24.08.2018 13:36 21,3 C 22,8 C 20,0 C 58 % 1010,8 hPa 0,0 l/m 0 min 0 min 332 W/m 9,0 km/h (2 Bft) 97,92 %
24.08.2018 13:38 21,3 C 22,8 C 20,0 C 58 % 1010,8 hPa 0,0 l/m 2 min 0 min 794 W/m 9,0 km/h (2 Bft) 97,87 %
24.08.2018 13:40 21,4 C 22,8 C 20,0 C 57 % 1010,8 hPa 0,0 l/m 2 min 0 min 956 W/m 18,0 km/h (3 Bft) 97,92 %
24.08.2018 13:42 21,5 C 22,8 C 20,0 C 58 % 1010,8 hPa 0,0 l/m 2 min 0 min 929 W/m 9,0 km/h (2 Bft) 100,00 %
24.08.2018 13:44 21,6 C 22,2 C 20,0 C 56 % 1010,8 hPa 0,0 l/m 2 min 0 min 900 W/m 9,0 km/h (2 Bft) 100,00 %
24.08.2018 13:46 21,6 C 21,1 C 19,4 C 56 % 1010,8 hPa 0,0 l/m 0 min 0 min 282 W/m 9,0 km/h (2 Bft) 100,00 %
24.08.2018 13:48 21,5 C 21,1 C 18,9 C 55 % 1010,8 hPa 0,0 l/m 0 min 0 min 188 W/m 15,8 km/h (3 Bft) 97,87 %
24.08.2018 13:50 21,4 C 20,6 C 18,9 C 56 % 1010,8 hPa 0,0 l/m 0 min 0 min 188 W/m 9,0 km/h (2 Bft) 100,00 %
24.08.2018 13:52 21,3 C 20,6 C 18,9 C 56 % 1010,8 hPa 0,0 l/m 0 min 0 min 231 W/m 13,5 km/h (3 Bft) 100,00 %
24.08.2018 13:54 21,3 C 21,1 C 18,9 C 57 % 1010,9 hPa 0,0 l/m 2 min 0 min 647 W/m 13,5 km/h (3 Bft) 100,00 %
24.08.2018 13:56 21,2 C 21,1 C 18,9 C 57 % 1010,8 hPa 0,0 l/m 2 min 0 min 849 W/m 11,3 km/h (2 Bft) 100,00 %
24.08.2018 13:58 21,2 C 21,7 C 19,4 C 58 % 1010,8 hPa 0,0 l/m 2 min 0 min 849 W/m 9,0 km/h (2 Bft) 100,00 %
24.08.2018 14:00 21,2 C 21,7 C 19,4 C 57 % 1010,9 hPa 0,0 l/m 2 min 0 min 848 W/m 15,8 km/h (3 Bft) 97,78 %
24.08.2018 14:02 21,2 C 21,7 C 19,4 C 54 % 1010,9 hPa 0,0 l/m 2 min 0 min 800 W/m 18,0 km/h (3 Bft) 98,00 %
24.08.2018 14:04 21,2 C 21,1 C 19,4 C 55 % 1010,9 hPa 0,0 l/m 2 min 0 min 789 W/m 11,3 km/h (2 Bft) 100,00 %
24.08.2018 14:06 21,2 C 21,1 C 19,4 C 54 % 1010,9 hPa 0,0 l/m 2 min 0 min 784 W/m 11,3 km/h (2 Bft) 100,00 %
24.08.2018 14:08 21,2 C 21,7 C 19,4 C 55 % 1010,9 hPa 0,0 l/m 2 min 0 min 765 W/m 11,3 km/h (2 Bft) 100,00 %
24.08.2018 14:10 21,2 C 21,7 C 19,4 C 55 % 1010,8 hPa 0,0 l/m 2 min 0 min 690 W/m 13,5 km/h (3 Bft) 100,00 %
24.08.2018 14:12 21,3 C 21,7 C 20,0 C 56 % 1010,8 hPa 0,0 l/m 2 min 0 min 835 W/m 13,5 km/h (3 Bft) 97,92 %
24.08.2018 14:14 21,3 C 22,2 C 20,0 C 55 % 1010,9 hPa 0,0 l/m 2 min 0 min 823 W/m 13,5 km/h (3 Bft) 100,00 %
24.08.2018 14:16 21,3 C 21,7 C 20,0 C 54 % 1010,8 hPa 0,0 l/m 2 min 0 min 851 W/m 11,3 km/h (2 Bft) 100,00 %
24.08.2018 14:18 21,3 C 22,2 C 20,0 C 55 % 1010,8 hPa 0,0 l/m 2 min 0 min 856 W/m 11,3 km/h (2 Bft) 100,00 %
24.08.2018 14:20 21,4 C 22,2 C 20,0 C 55 % 1010,8 hPa 0,0 l/m 2 min 0 min 875 W/m 11,3 km/h (2 Bft) 100,00 %
24.08.2018 14:22 21,4 C 22,2 C 20,6 C 56 % 1010,9 hPa 0,0 l/m 2 min 0 min 867 W/m 9,0 km/h (2 Bft) 97,87 %
24.08.2018 14:24 21,4 C 22,8 C 20,6 C 56 % 1010,8 hPa 0,0 l/m 2 min 0 min 872 W/m 15,8 km/h (3 Bft) 97,87 %
24.08.2018 14:26 21,5 C 22,2 C 20,0 C 54 % 1010,9 hPa 0,0 l/m 2 min 0 min 612 W/m 11,3 km/h (2 Bft) 97,87 %
24.08.2018 14:28 21,5 C 21,7 C 20,0 C 55 % 1010,8 hPa 0,0 l/m 0 min 0 min 324 W/m 9,0 km/h (2 Bft) 97,87 %
24.08.2018 14:30 21,5 C 21,1 C 20,0 C 54 % 1010,9 hPa 0,0 l/m 0 min 0 min 269 W/m 11,3 km/h (2 Bft) 97,87 %
24.08.2018 14:32 21,5 C 21,1 C 19,4 C 54 % 1010,9 hPa 0,0 l/m 2 min 0 min 610 W/m 13,5 km/h (3 Bft) 93,62 %
24.08.2018 14:34 21,4 C 21,1 C 19,4 C 54 % 1010,9 hPa 0,0 l/m 2 min 0 min 579 W/m 11,3 km/h (2 Bft) 97,83 %
24.08.2018 14:36 21,4 C 21,1 C 19,4 C 56 % 1010,8 hPa 0,0 l/m 0 min 0 min 349 W/m 9,0 km/h (2 Bft) 97,87 %
24.08.2018 14:38 21,4 C 21,1 C 19,4 C 53 % 1010,8 hPa 0,0 l/m 2 min 0 min 538 W/m 13,5 km/h (3 Bft) 97,62 %
24.08.2018 14:40 21,4 C 21,1 C 19,4 C 53 % 1010,8 hPa 0,0 l/m 2 min 0 min 537 W/m 11,3 km/h (2 Bft) 97,92 %
24.08.2018 14:42 21,3 C 20,6 C 19,4 C 52 % 1010,8 hPa 0,0 l/m 2 min 0 min 487 W/m 9,0 km/h (2 Bft) 97,92 %
24.08.2018 14:44 21,3 C 21,1 C 19,4 C 52 % 1010,9 hPa 0,0 l/m 2 min 0 min 520 W/m 9,0 km/h (2 Bft) 97,92 %
24.08.2018 14:46 21,2 C 21,1 C 19,4 C 53 % 1010,7 hPa 0,0 l/m 2 min 0 min 493 W/m 9,0 km/h (2 Bft) 97,87 %
24.08.2018 14:48 21,2 C 21,1 C 20,0 C 52 % 1010,7 hPa 0,0 l/m 2 min 0 min 529 W/m 9,0 km/h (2 Bft) 97,87 %
24.08.2018 14:50 21,2 C 21,7 C 20,0 C 53 % 1010,7 hPa 0,0 l/m 2 min 0 min 563 W/m 13,5 km/h (3 Bft) 97,92 %
24.08.2018 14:52 21,2 C 21,7 C 20,0 C 52 % 1010,7 hPa 0,0 l/m 2 min 0 min 650 W/m 11,3 km/h (2 Bft) 97,96 %
24.08.2018 14:54 21,2 C 21,7 C 20,0 C 52 % 1010,6 hPa 0,0 l/m 2 min 0 min 594 W/m 13,5 km/h (3 Bft) 95,83 %
24.08.2018 14:56 21,2 C 21,7 C 20,0 C 51 % 1010,8 hPa 0,0 l/m 2 min 0 min 612 W/m 13,5 km/h (3 Bft) 97,83 %
24.08.2018 14:58 21,2 C 21,7 C 20,0 C 51 % 1010,8 hPa 0,0 l/m 2 min 0 min 667 W/m 11,3 km/h (2 Bft) 91,49 %
24.08.2018 15:00 21,3 C 22,2 C 20,0 C 52 % 1010,7 hPa 0,0 l/m 2 min 0 min 667 W/m 13,5 km/h (3 Bft) 95,74 %
24.08.2018 15:02 21,3 C 22,2 C 20,0 C 51 % 1010,7 hPa 0,0 l/m 2 min 0 min 665 W/m 9,0 km/h (2 Bft) 95,24 %
24.08.2018 15:04 21,3 C 21,7 C 20,0 C 50 % 1010,9 hPa 0,0 l/m 2 min 0 min 663 W/m 15,8 km/h (3 Bft) 96,00 %
24.08.2018 15:06 21,3 C 22,2 C 20,0 C 50 % 1010,8 hPa 0,0 l/m 2 min 0 min 610 W/m 11,3 km/h (2 Bft) 97,87 %
24.08.2018 15:08 21,3 C 22,2 C 20,0 C 50 % 1010,6 hPa 0,0 l/m 2 min 0 min 626 W/m 11,3 km/h (2 Bft) 95,74 %
24.08.2018 15:10 21,4 C 22,2 C 20,0 C 50 % 1010,6 hPa 0,0 l/m 2 min 0 min 612 W/m 15,8 km/h (3 Bft) 95,83 %
24.08.2018 15:12 21,4 C 21,7 C 20,0 C 51 % 1010,6 hPa 0,0 l/m 2 min 0 min 567 W/m 27,0 km/h (4 Bft) 97,92 %
24.08.2018 15:14 21,4 C 21,7 C 20,0 C 52 % 1010,6 hPa 0,0 l/m 2 min 0 min 513 W/m 6,8 km/h (2 Bft) 97,92 %
24.08.2018 15:16 21,4 C 21,7 C 20,0 C 51 % 1010,5 hPa 0,0 l/m 2 min 0 min 513 W/m 9,0 km/h (2 Bft) 97,92 %
24.08.2018 15:18 21,4 C 21,7 C 20,0 C 50 % 1010,6 hPa 0,0 l/m 2 min 0 min 534 W/m 13,5 km/h (3 Bft) 97,87 %
24.08.2018 15:20 21,4 C 21,7 C 20,0 C 50 % 1010,6 hPa 0,0 l/m 2 min 0 min 522 W/m 11,3 km/h (2 Bft) 95,83 %
24.08.2018 15:22 21,3 C 21,7 C 20,0 C 51 % 1010,7 hPa 0,0 l/m 2 min 0 min 527 W/m 9,0 km/h (2 Bft) 91,67 %
24.08.2018 15:24 21,3 C 21,1 C 20,0 C 50 % 1010,6 hPa 0,0 l/m 2 min 0 min 506 W/m 9,0 km/h (2 Bft) 97,87 %
24.08.2018 15:26 21,3 C 21,1 C 20,0 C 51 % 1010,6 hPa 0,0 l/m 2 min 0 min 511 W/m 15,8 km/h (3 Bft) 97,14 %
24.08.2018 15:28 21,2 C 21,1 C 20,0 C 50 % 1010,5 hPa 0,0 l/m 2 min 0 min 516 W/m 9,0 km/h (2 Bft) 97,87 %
24.08.2018 15:30 21,2 C 21,1 C 20,0 C 51 % 1010,6 hPa 0,0 l/m 2 min 0 min 391 W/m 9,0 km/h (2 Bft) 95,74 %
24.08.2018 15:32 21,2 C 21,1 C 20,0 C 51 % 1010,6 hPa 0,0 l/m 2 min 0 min 366 W/m 11,3 km/h (2 Bft) 93,75 %
24.08.2018 15:34 21,2 C 21,1 C 20,0 C 51 % 1010,5 hPa 0,0 l/m 2 min 0 min 429 W/m 6,8 km/h (2 Bft) 95,65 %
24.08.2018 15:36 21,2 C 21,1 C 20,0 C 52 % 1010,5 hPa 0,0 l/m 2 min 0 min 366 W/m 9,0 km/h (2 Bft) 95,92 %
24.08.2018 15:38 21,1 C 21,1 C 19,4 C 51 % 1010,4 hPa 0,0 l/m 2 min 0 min 345 W/m 9,0 km/h (2 Bft) 93,48 %
24.08.2018 15:40 21,1 C 20,6 C 19,4 C 51 % 1010,6 hPa 0,0 l/m 2 min 0 min 338 W/m 20,3 km/h (4 Bft) 95,74 %
24.08.2018 15:42 21,0 C 20,6 C 19,4 C 51 % 1010,5 hPa 0,0 l/m 0 min 0 min 306 W/m 9,0 km/h (2 Bft) 95,24 %
24.08.2018 15:44 20,9 C 20,6 C 19,4 C 51 % 1010,5 hPa 0,0 l/m 0 min 0 min 292 W/m 11,3 km/h (2 Bft) 93,75 %
24.08.2018 15:46 20,8 C 20,6 C 19,4 C 51 % 1010,5 hPa 0,0 l/m 0 min 0 min 311 W/m 11,3 km/h (2 Bft) 95,74 %
24.08.2018 15:48 20,8 C 20,6 C 19,4 C 51 % 1010,6 hPa 0,0 l/m 2 min 0 min 363 W/m 9,0 km/h (2 Bft) 95,74 %
24.08.2018 15:50 20,8 C 20,6 C 19,4 C 52 % 1010,5 hPa 0,0 l/m 2 min 0 min 354 W/m 11,3 km/h (2 Bft) 95,83 %
24.08.2018 15:52 20,7 C 20,6 C 19,4 C 51 % 1010,4 hPa 0,0 l/m 2 min 0 min 418 W/m 11,3 km/h (2 Bft) 95,92 %
24.08.2018 15:54 20,7 C 20,6 C 19,4 C 52 % 1010,4 hPa 0,0 l/m 2 min 0 min 464 W/m 11,3 km/h (2 Bft) 95,74 %
24.08.2018 15:56 20,7 C 21,1 C 19,4 C 51 % 1010,4 hPa 0,0 l/m 2 min 0 min 440 W/m 9,0 km/h (2 Bft) 93,48 %
24.08.2018 15:58 20,7 C 21,1 C 19,4 C 52 % 1010,4 hPa 0,0 l/m 2 min 0 min 440 W/m 9,0 km/h (2 Bft) 93,62 %
24.08.2018 16:00 20,7 C 21,1 C 19,4 C 52 % 1010,4 hPa 0,0 l/m 2 min 0 min 472 W/m 9,0 km/h (2 Bft) 95,24 %
24.08.2018 16:02 20,7 C 21,1 C 19,4 C 51 % 1010,4 hPa 0,0 l/m 2 min 0 min 423 W/m 11,3 km/h (2 Bft) 94,00 %
24.08.2018 16:04 20,7 C 21,1 C 19,4 C 51 % 1010,4 hPa 0,0 l/m 2 min 0 min 373 W/m 13,5 km/h (3 Bft) 95,74 %
24.08.2018 16:06 20,7 C 21,1 C 19,4 C 52 % 1010,4 hPa 0,0 l/m 2 min 0 min 351 W/m 9,0 km/h (2 Bft) 95,83 %
24.08.2018 16:08 20,7 C 21,1 C 19,4 C 52 % 1010,4 hPa 0,0 l/m 2 min 0 min 376 W/m 11,3 km/h (2 Bft) 95,74 %
24.08.2018 16:10 20,7 C 21,1 C 19,4 C 52 % 1010,3 hPa 0,0 l/m 2 min 0 min 416 W/m 9,0 km/h (2 Bft) 95,65 %
24.08.2018 16:12 20,7 C 21,1 C 19,4 C 52 % 1010,4 hPa 0,0 l/m 2 min 0 min 361 W/m 9,0 km/h (2 Bft) 97,87 %
24.08.2018 16:14 20,7 C 21,1 C 19,4 C 53 % 1010,4 hPa 0,0 l/m 2 min 0 min 364 W/m 11,3 km/h (2 Bft) 100,00 %
24.08.2018 16:16 20,7 C 21,1 C 19,4 C 52 % 1010,4 hPa 0,0 l/m 2 min 0 min 335 W/m 11,3 km/h (2 Bft) 97,87 %
24.08.2018 16:18 20,7 C 20,6 C 19,4 C 52 % 1010,4 hPa 0,0 l/m 2 min 0 min 321 W/m 11,3 km/h (2 Bft) 100,00 %
24.08.2018 16:20 20,7 C 21,1 C 19,4 C 53 % 1010,4 hPa 0,0 l/m 2 min 0 min 315 W/m 6,8 km/h (2 Bft) 97,87 %
24.08.2018 16:22 20,7 C 20,6 C 19,4 C 52 % 1010,2 hPa 0,0 l/m 0 min 0 min 284 W/m 15,8 km/h (3 Bft) 100,00 %
24.08.2018 16:24 20,7 C 20,0 C 19,4 C 51 % 1010,3 hPa 0,0 l/m 0 min 0 min 257 W/m 13,5 km/h (3 Bft) 100,00 %
24.08.2018 16:26 20,6 C 20,0 C 18,9 C 52 % 1010,4 hPa 0,0 l/m 0 min 0 min 242 W/m 11,3 km/h (2 Bft) 97,87 %
24.08.2018 16:28 20,6 C 20,0 C 18,9 C 52 % 1010,3 hPa 0,0 l/m 0 min 0 min 246 W/m 6,8 km/h (2 Bft) 100,00 %
24.08.2018 16:30 20,6 C 20,0 C 18,9 C 52 % 1010,3 hPa 0,0 l/m 0 min 0 min 238 W/m 13,5 km/h (3 Bft) 100,00 %
24.08.2018 16:32 20,5 C 20,0 C 18,9 C 53 % 1010,3 hPa 0,0 l/m 0 min 0 min 221 W/m 11,3 km/h (2 Bft) 100,00 %
24.08.2018 16:34 20,4 C 20,0 C 18,9 C 52 % 1010,3 hPa 0,0 l/m 0 min 0 min 203 W/m 9,0 km/h (2 Bft) 100,00 %
24.08.2018 16:36 20,4 C 20,0 C 18,9 C 52 % 1010,3 hPa 0,0 l/m 0 min 0 min 192 W/m 6,8 km/h (2 Bft) 100,00 %
24.08.2018 16:38 20,4 C 19,4 C 18,9 C 53 % 1010,3 hPa 0,0 l/m 0 min 0 min 184 W/m 6,8 km/h (2 Bft) 100,00 %
24.08.2018 16:40 20,3 C 20,0 C 18,9 C 53 % 1010,2 hPa 0,0 l/m 0 min 0 min 182 W/m 6,8 km/h (2 Bft) 100,00 %
24.08.2018 16:42 20,3 C 20,0 C 18,9 C 53 % 1010,3 hPa 0,0 l/m 0 min 0 min 199 W/m 11,3 km/h (2 Bft) 100,00 %
24.08.2018 16:44 20,3 C 20,0 C 18,9 C 53 % 1010,3 hPa 0,0 l/m 0 min 0 min 223 W/m 11,3 km/h (2 Bft) 100,00 %
24.08.2018 16:46 20,2 C 19,4 C 18,9 C 54 % 1010,3 hPa 0,0 l/m 0 min 0 min 248 W/m 22,5 km/h (4 Bft) 100,00 %
24.08.2018 16:48 20,2 C 20,0 C 18,9 C 53 % 1010,3 hPa 0,0 l/m 2 min 0 min 280 W/m 11,3 km/h (2 Bft) 95,74 %
24.08.2018 16:50 20,2 C 20,0 C 18,9 C 54 % 1010,2 hPa 0,0 l/m 2 min 0 min 289 W/m 15,8 km/h (3 Bft) 100,00 %
24.08.2018 16:52 20,2 C 20,0 C 18,9 C 54 % 1010,2 hPa 0,0 l/m 2 min 0 min 281 W/m 9,0 km/h (2 Bft) 100,00 %
24.08.2018 16:54 20,2 C 20,0 C 18,9 C 54 % 1010,2 hPa 0,0 l/m 2 min 0 min 270 W/m 13,5 km/h (3 Bft) 100,00 %
24.08.2018 16:56 20,1 C 20,0 C 18,9 C 55 % 1010,3 hPa 0,0 l/m 0 min 0 min 258 W/m 11,3 km/h (2 Bft) 100,00 %
24.08.2018 16:58 20,1 C 20,0 C 18,9 C 55 % 1010,2 hPa 0,0 l/m 0 min 0 min 258 W/m 15,8 km/h (3 Bft) 100,00 %
24.08.2018 17:00 20,1 C 19,4 C 18,9 C 55 % 1010,3 hPa 0,0 l/m 2 min 0 min 266 W/m 15,8 km/h (3 Bft) 100,00 %
24.08.2018 17:02 20,0 C 19,4 C 18,9 C 55 % 1010,3 hPa 0,0 l/m 2 min 0 min 261 W/m 15,8 km/h (3 Bft) 100,00 %
24.08.2018 17:04 19,9 C 19,4 C 18,9 C 54 % 1010,2 hPa 0,0 l/m 0 min 0 min 250 W/m 18,0 km/h (3 Bft) 100,00 %
24.08.2018 17:06 19,9 C 19,4 C 18,9 C 54 % 1010,3 hPa 0,0 l/m 0 min 0 min 238 W/m 11,3 km/h (2 Bft) 100,00 %
24.08.2018 17:08 19,9 C 19,4 C 18,9 C 55 % 1010,2 hPa 0,0 l/m 0 min 0 min 229 W/m 11,3 km/h (2 Bft) 100,00 %
24.08.2018 17:10 19,9 C 19,4 C 18,3 C 54 % 1010,3 hPa 0,0 l/m 0 min 0 min 219 W/m 13,5 km/h (3 Bft) 100,00 %
24.08.2018 17:12 19,8 C 19,4 C 18,9 C 54 % 1010,2 hPa 0,0 l/m 0 min 0 min 211 W/m 20,3 km/h (4 Bft) 100,00 %
24.08.2018 17:14 19,8 C 19,4 C 18,3 C 55 % 1010,2 hPa 0,0 l/m 0 min 0 min 205 W/m 13,5 km/h (3 Bft) 100,00 %
24.08.2018 17:16 19,7 C 19,4 C 18,3 C 55 % 1010,3 hPa 0,0 l/m 0 min 0 min 197 W/m 20,3 km/h (4 Bft) 100,00 %
24.08.2018 17:18 19,7 C 18,9 C 18,3 C 55 % 1010,2 hPa 0,0 l/m 0 min 0 min 186 W/m 9,0 km/h (2 Bft) 100,00 %
24.08.2018 17:20 19,7 C 18,9 C 18,3 C 55 % 1010,3 hPa 0,0 l/m 0 min 0 min 179 W/m 11,3 km/h (2 Bft) 100,00 %
24.08.2018 17:22 19,7 C 18,9 C 18,3 C 55 % 1010,3 hPa 0,0 l/m 0 min 0 min 173 W/m 11,3 km/h (2 Bft) 100,00 %
24.08.2018 17:24 19,6 C 18,9 C 18,3 C 55 % 1010,2 hPa 0,0 l/m 0 min 0 min 167 W/m 6,8 km/h (2 Bft) 100,00 %
24.08.2018 17:26 19,6 C 18,9 C 18,3 C 55 % 1010,2 hPa 0,0 l/m 0 min 0 min 164 W/m 9,0 km/h (2 Bft) 100,00 %
24.08.2018 17:28 19,5 C 18,9 C 18,3 C 55 % 1010,3 hPa 0,0 l/m 0 min 0 min 161 W/m 11,3 km/h (2 Bft) 100,00 %
24.08.2018 17:30 19,5 C 18,9 C 18,3 C 55 % 1010,3 hPa 0,0 l/m 0 min 0 min 156 W/m 11,3 km/h (2 Bft) 100,00 %
24.08.2018 17:32 19,4 C 18,9 C 18,3 C 55 % 1010,3 hPa 0,0 l/m 0 min 0 min 152 W/m 15,8 km/h (3 Bft) 100,00 %
24.08.2018 17:34 19,4 C 18,9 C 18,3 C 55 % 1010,2 hPa 0,0 l/m 0 min 0 min 149 W/m 6,8 km/h (2 Bft) 97,92 %
24.08.2018 17:36 19,4 C 18,9 C 18,3 C 55 % 1010,2 hPa 0,0 l/m 0 min 0 min 149 W/m 15,8 km/h (3 Bft) 95,83 %
24.08.2018 17:38 19,4 C 18,9 C 18,3 C 56 % 1010,2 hPa 0,0 l/m 0 min 0 min 148 W/m 6,8 km/h (2 Bft) 97,92 %
24.08.2018 17:40 19,4 C 18,9 C 18,3 C 56 % 1010,2 hPa 0,0 l/m 0 min 0 min 145 W/m 9,0 km/h (2 Bft) 97,92 %
24.08.2018 17:42 19,3 C 18,9 C 18,3 C 56 % 1010,2 hPa 0,0 l/m 0 min 0 min 139 W/m 6,8 km/h (2 Bft) 97,87 %
24.08.2018 17:44 19,3 C 18,9 C 18,3 C 56 % 1010,2 hPa 0,0 l/m 0 min 0 min 133 W/m 6,8 km/h (2 Bft) 97,92 %
24.08.2018 17:46 19,3 C 18,9 C 18,3 C 56 % 1010,2 hPa 0,0 l/m 0 min 0 min 132 W/m 6,8 km/h (2 Bft) 97,92 %
24.08.2018 17:48 19,3 C 18,9 C 18,3 C 56 % 1010,2 hPa 0,0 l/m 0 min 0 min 133 W/m 9,0 km/h (2 Bft) 97,92 %
24.08.2018 17:50 19,2 C 18,9 C 18,3 C 55 % 1010,3 hPa 0,0 l/m 0 min 0 min 135 W/m 11,3 km/h (2 Bft) 97,92 %
24.08.2018 17:52 19,2 C 18,3 C 17,8 C 55 % 1010,3 hPa 0,0 l/m 0 min 0 min 134 W/m 15,8 km/h (3 Bft) 97,22 %
24.08.2018 17:54 19,2 C 18,3 C 17,8 C 56 % 1010,3 hPa 0,0 l/m 0 min 0 min 132 W/m 6,8 km/h (2 Bft) 97,87 %
24.08.2018 17:56 19,2 C 18,3 C 17,8 C 56 % 1010,2 hPa 0,0 l/m 0 min 0 min 131 W/m 9,0 km/h (2 Bft) 97,92 %
24.08.2018 17:58 19,1 C 18,3 C 17,8 C 56 % 1010,3 hPa 0,0 l/m 0 min 0 min 134 W/m 9,0 km/h (2 Bft) 97,92 %
24.08.2018 18:00 19,1 C 18,3 C 17,8 C 56 % 1010,3 hPa 0,0 l/m 0 min 0 min 130 W/m 4,5 km/h (1 Bft) 97,87 %
24.08.2018 18:02 19,1 C 18,3 C 17,8 C 57 % 1010,3 hPa 0,0 l/m 0 min 0 min 126 W/m 6,8 km/h (2 Bft) 97,73 %
24.08.2018 18:04 19,1 C 18,3 C 17,8 C 57 % 1010,3 hPa 0,0 l/m 0 min 0 min 122 W/m 9,0 km/h (2 Bft) 94,00 %
24.08.2018 18:06 19,1 C 18,3 C 17,8 C 56 % 1010,3 hPa 0,0 l/m 0 min 0 min 118 W/m 11,3 km/h (2 Bft) 95,74 %
24.08.2018 18:08 19,0 C 18,3 C 17,8 C 57 % 1010,3 hPa 0,0 l/m 0 min 0 min 111 W/m 13,5 km/h (3 Bft) 93,62 %
24.08.2018 18:10 19,0 C 18,3 C 17,8 C 56 % 1010,2 hPa 0,0 l/m 0 min 0 min 104 W/m 6,8 km/h (2 Bft) 91,49 %
24.08.2018 18:12 18,9 C 18,3 C 17,8 C 57 % 1010,3 hPa 0,0 l/m 0 min 0 min 102 W/m 13,5 km/h (3 Bft) 93,62 %
24.08.2018 18:14 18,9 C 18,3 C 17,8 C 56 % 1010,3 hPa 0,0 l/m 0 min 0 min 102 W/m 6,8 km/h (2 Bft) 93,02 %
24.08.2018 18:16 18,9 C 18,3 C 17,8 C 57 % 1010,2 hPa 0,0 l/m 0 min 0 min 108 W/m 15,8 km/h (3 Bft) 93,88 %
24.08.2018 18:18 18,8 C 18,3 C 17,8 C 57 % 1010,2 hPa 0,0 l/m 0 min 0 min 118 W/m 9,0 km/h (2 Bft) 95,74 %
24.08.2018 18:20 18,8 C 18,3 C 17,8 C 57 % 1010,2 hPa 0,0 l/m 0 min 0 min 128 W/m 6,8 km/h (2 Bft) 93,75 %
24.08.2018 18:22 18,8 C 18,3 C 17,8 C 58 % 1010,2 hPa 0,0 l/m 0 min 0 min 132 W/m 6,8 km/h (2 Bft) 93,62 %
24.08.2018 18:24 18,8 C 18,3 C 17,8 C 57 % 1010,3 hPa 0,0 l/m 0 min 0 min 137 W/m 13,5 km/h (3 Bft) 95,74 %
24.08.2018 18:26 18,7 C 18,3 C 17,8 C 57 % 1010,3 hPa 0,0 l/m 0 min 0 min 141 W/m 13,5 km/h (3 Bft) 93,62 %
24.08.2018 18:28 18,7 C 18,3 C 17,8 C 58 % 1010,3 hPa 0,0 l/m 0 min 0 min 139 W/m 11,3 km/h (2 Bft) 95,65 %
24.08.2018 18:30 18,7 C 18,3 C 17,8 C 58 % 1010,3 hPa 0,0 l/m 0 min 0 min 126 W/m 6,8 km/h (2 Bft) 91,49 %
24.08.2018 18:32 18,7 C 18,3 C 17,8 C 59 % 1010,3 hPa 0,0 l/m 0 min 0 min 111 W/m 2,3 km/h (1 Bft) 90,70 %
24.08.2018 18:34 18,7 C 18,3 C 17,8 C 59 % 1010,2 hPa 0,0 l/m 0 min 0 min 91 W/m 4,5 km/h (1 Bft) 95,83 %
24.08.2018 18:36 18,7 C 18,3 C 17,8 C 59 % 1010,2 hPa 0,0 l/m 0 min 0 min 80 W/m 4,5 km/h (1 Bft) 95,74 %
24.08.2018 18:38 18,7 C 18,3 C 17,8 C 59 % 1010,2 hPa 0,0 l/m 0 min 0 min 76 W/m 9,0 km/h (2 Bft) 91,67 %
24.08.2018 18:40 18,7 C 18,3 C 17,8 C 58 % 1010,2 hPa 0,0 l/m 0 min 0 min 81 W/m 9,0 km/h (2 Bft) 95,65 %
24.08.2018 18:42 18,7 C 18,3 C 17,8 C 58 % 1010,2 hPa 0,0 l/m 0 min 0 min 96 W/m 11,3 km/h (2 Bft) 93,88 %
24.08.2018 18:44 18,7 C 18,3 C 17,8 C 57 % 1010,2 hPa 0,0 l/m 0 min 0 min 110 W/m 6,8 km/h (2 Bft) 95,83 %
24.08.2018 18:46 18,7 C 18,3 C 17,8 C 58 % 1010,2 hPa 0,0 l/m 0 min 0 min 113 W/m 4,5 km/h (1 Bft) 93,62 %
24.08.2018 18:48 18,7 C 18,3 C 17,8 C 58 % 1010,2 hPa 0,0 l/m 0 min 0 min 109 W/m 4,5 km/h (1 Bft) 93,75 %
24.08.2018 18:50 18,6 C 18,3 C 17,8 C 58 % 1010,2 hPa 0,0 l/m 0 min 0 min 107 W/m 4,5 km/h (1 Bft) 95,83 %
24.08.2018 18:52 18,6 C 18,3 C 17,8 C 59 % 1010,2 hPa 0,0 l/m 0 min 0 min 105 W/m 6,8 km/h (2 Bft) 95,74 %
24.08.2018 18:54 18,6 C 17,8 C 17,8 C 58 % 1010,2 hPa 0,0 l/m 0 min 0 min 100 W/m 11,3 km/h (2 Bft) 97,87 %
24.08.2018 18:56 18,6 C 17,8 C 17,8 C 58 % 1010,2 hPa 0,0 l/m 0 min 0 min 96 W/m 11,3 km/h (2 Bft) 97,87 %
24.08.2018 18:58 18,6 C 17,8 C 17,2 C 58 % 1010,1 hPa 0,0 l/m 0 min 0 min 91 W/m 9,0 km/h (2 Bft) 95,74 %
24.08.2018 19:00 18,6 C 17,8 C 17,2 C 58 % 1010,2 hPa 0,0 l/m 0 min 0 min 90 W/m 9,0 km/h (2 Bft) 97,87 %
24.08.2018 19:02 18,6 C 17,8 C 17,2 C 58 % 1010,1 hPa 0,0 l/m 0 min 0 min 91 W/m 6,8 km/h (2 Bft) 95,12 %
24.08.2018 19:04 18,5 C 17,8 C 17,2 C 58 % 1010,2 hPa 0,0 l/m 0 min 0 min 95 W/m 6,8 km/h (2 Bft) 98,08 %
24.08.2018 19:06 18,5 C 17,8 C 17,2 C 59 % 1010,1 hPa 0,0 l/m 0 min 0 min 96 W/m 9,0 km/h (2 Bft) 97,87 %
24.08.2018 19:08 18,5 C 17,8 C 17,2 C 59 % 1010,1 hPa 0,0 l/m 0 min 0 min 93 W/m 9,0 km/h (2 Bft) 97,87 %
24.08.2018 19:10 18,4 C 17,8 C 17,2 C 59 % 1010,1 hPa 0,0 l/m 0 min 0 min 87 W/m 9,0 km/h (2 Bft) 95,74 %
24.08.2018 19:12 18,4 C 17,8 C 17,2 C 59 % 1010,1 hPa 0,0 l/m 0 min 0 min 80 W/m 6,8 km/h (2 Bft) 97,92 %
24.08.2018 19:14 18,4 C 17,8 C 17,2 C 59 % 1010,1 hPa 0,0 l/m 0 min 0 min 73 W/m 11,3 km/h (2 Bft) 97,62 %
24.08.2018 19:16 18,4 C 17,8 C 17,2 C 59 % 1010,1 hPa 0,0 l/m 0 min 0 min 69 W/m 4,5 km/h (1 Bft) 97,92 %
24.08.2018 19:18 18,4 C 17,8 C 17,2 C 59 % 1010,1 hPa 0,0 l/m 0 min 0 min 67 W/m 6,8 km/h (2 Bft) 97,87 %
24.08.2018 19:20 18,3 C 17,8 C 17,2 C 60 % 1010,0 hPa 0,0 l/m 0 min 0 min 65 W/m 11,3 km/h (2 Bft) 97,92 %
24.08.2018 19:22 18,3 C 17,8 C 17,2 C 59 % 1010,1 hPa 0,0 l/m 0 min 0 min 63 W/m 9,0 km/h (2 Bft) 100,00 %
24.08.2018 19:24 18,3 C 17,2 C 17,2 C 59 % 1010,0 hPa 0,0 l/m 0 min 0 min 63 W/m 9,0 km/h (2 Bft) 100,00 %
24.08.2018 19:26 18,3 C 17,2 C 17,2 C 59 % 1010,0 hPa 0,0 l/m 0 min 0 min 62 W/m 9,0 km/h (2 Bft) 100,00 %
24.08.2018 19:28 18,3 C 17,2 C 17,2 C 59 % 1010,0 hPa 0,0 l/m 0 min 0 min 59 W/m 9,0 km/h (2 Bft) 100,00 %
24.08.2018 19:30 18,2 C 17,2 C 17,2 C 59 % 1010,0 hPa 0,0 l/m 0 min 0 min 56 W/m 6,8 km/h (2 Bft) 100,00 %
24.08.2018 19:32 18,2 C 17,2 C 17,2 C 59 % 1010,0 hPa 0,0 l/m 0 min 0 min 49 W/m 6,8 km/h (2 Bft) 100,00 %
24.08.2018 19:34 18,2 C 17,2 C 17,2 C 59 % 1010,1 hPa 0,0 l/m 0 min 0 min 44 W/m 9,0 km/h (2 Bft) 97,92 %
24.08.2018 19:36 18,2 C 17,2 C 17,2 C 59 % 1010,0 hPa 0,0 l/m 0 min 0 min 41 W/m 11,3 km/h (2 Bft) 100,00 %
24.08.2018 19:38 18,1 C 17,2 C 16,7 C 60 % 1010,0 hPa 0,0 l/m 0 min 0 min 40 W/m 4,5 km/h (1 Bft) 100,00 %
24.08.2018 19:40 18,1 C 17,2 C 17,2 C 60 % 1010,0 hPa 0,0 l/m 0 min 0 min 42 W/m 6,8 km/h (2 Bft) 100,00 %
24.08.2018 19:42 18,1 C 17,2 C 17,2 C 60 % 1010,0 hPa 0,0 l/m 0 min 0 min 42 W/m 9,0 km/h (2 Bft) 100,00 %
24.08.2018 19:44 18,1 C 17,2 C 17,2 C 60 % 1010,0 hPa 0,0 l/m 0 min 0 min 41 W/m 6,8 km/h (2 Bft) 100,00 %
24.08.2018 19:46 18,1 C 17,2 C 17,2 C 60 % 1010,0 hPa 0,0 l/m 0 min 0 min 39 W/m 4,5 km/h (1 Bft) 100,00 %
24.08.2018 19:48 18,1 C 17,2 C 17,2 C 60 % 1010,0 hPa 0,0 l/m 0 min 0 min 36 W/m 4,5 km/h (1 Bft) 100,00 %
24.08.2018 19:50 18,1 C 17,2 C 17,2 C 60 % 1010,0 hPa 0,0 l/m 0 min 0 min 34 W/m 4,5 km/h (1 Bft) 100,00 %
24.08.2018 19:52 18,1 C 17,2 C 17,2 C 60 % 1010,0 hPa 0,0 l/m 0 min 0 min 33 W/m 4,5 km/h (1 Bft) 97,87 %
24.08.2018 19:54 18,1 C 17,2 C 16,7 C 61 % 1009,9 hPa 0,0 l/m 0 min 0 min 33 W/m 2,3 km/h (1 Bft) 100,00 %
24.08.2018 19:56 18,0 C 17,2 C 16,7 C 61 % 1009,9 hPa 0,0 l/m 0 min 0 min 33 W/m 4,5 km/h (1 Bft) 95,83 %
24.08.2018 19:58 18,0 C 17,2 C 16,7 C 61 % 1010,0 hPa 0,0 l/m 0 min 0 min 33 W/m 6,8 km/h (2 Bft) 100,00 %
24.08.2018 20:00 18,0 C 17,2 C 16,7 C 61 % 1010,0 hPa 0,0 l/m 0 min 0 min 33 W/m 4,5 km/h (1 Bft) 100,00 %
24.08.2018 20:02 18,0 C 17,2 C 16,7 C 61 % 1010,0 hPa 0,0 l/m 0 min 0 min 33 W/m 2,3 km/h (1 Bft) 97,87 %
24.08.2018 20:04 18,0 C 17,2 C 16,7 C 61 % 1009,9 hPa 0,0 l/m 0 min 0 min 31 W/m 2,3 km/h (1 Bft) 100,00 %
24.08.2018 20:06 18,0 C 17,2 C 16,7 C 62 % 1009,9 hPa 0,0 l/m 0 min 0 min 27 W/m 4,5 km/h (1 Bft) 100,00 %
24.08.2018 20:08 18,0 C 17,2 C 16,7 C 62 % 1009,9 hPa 0,0 l/m 0 min 0 min 25 W/m 2,3 km/h (1 Bft) 100,00 %
24.08.2018 20:10 18,0 C 17,2 C 16,7 C 62 % 1009,8 hPa 0,0 l/m 0 min 0 min 21 W/m 2,3 km/h (1 Bft) 100,00 %
24.08.2018 20:12 17,9 C 17,2 C 16,7 C 62 % 1010,0 hPa 0,0 l/m 0 min 0 min 18 W/m 6,8 km/h (2 Bft) 100,00 %
24.08.2018 20:14 17,9 C 16,7 C 16,7 C 62 % 1009,9 hPa 0,0 l/m 0 min 0 min 16 W/m 9,0 km/h (2 Bft) 100,00 %
24.08.2018 20:16 17,9 C 16,7 C 16,7 C 62 % 1009,9 hPa 0,0 l/m 0 min 0 min 16 W/m 4,5 km/h (1 Bft) 100,00 %
24.08.2018 20:18 17,9 C 16,7 C 16,7 C 63 % 1010,1 hPa 0,0 l/m 0 min 0 min 15 W/m 2,3 km/h (1 Bft) 100,00 %
24.08.2018 20:20 17,9 C 16,7 C 16,7 C 62 % 1010,0 hPa 0,0 l/m 0 min 0 min 13 W/m 2,3 km/h (1 Bft) 100,00 %
24.08.2018 20:22 17,9 C 16,7 C 16,7 C 62 % 1010,0 hPa 0,0 l/m 0 min 0 min 12 W/m 2,3 km/h (1 Bft) 100,00 %
24.08.2018 20:24 17,9 C 16,7 C 16,7 C 62 % 1010,0 hPa 0,0 l/m 0 min 0 min 11 W/m 2,3 km/h (1 Bft) 100,00 %
24.08.2018 20:26 17,9 C 16,7 C 16,7 C 62 % 1010,0 hPa 0,0 l/m 0 min 0 min 11 W/m 2,3 km/h (1 Bft) 100,00 %
24.08.2018 20:28 17,9 C 16,7 C 16,7 C 63 % 1010,1 hPa 0,0 l/m 0 min 0 min 9 W/m 6,8 km/h (2 Bft) 100,00 %
24.08.2018 20:30 17,8 C 16,7 C 16,7 C 62 % 1010,1 hPa 0,0 l/m 0 min 0 min 9 W/m 2,3 km/h (1 Bft) 100,00 %
24.08.2018 20:32 17,8 C 16,7 C 16,7 C 62 % 1010,1 hPa 0,0 l/m 0 min 0 min 8 W/m 2,3 km/h (1 Bft) 97,96 %
24.08.2018 20:34 17,8 C 16,7 C 16,7 C 62 % 1010,1 hPa 0,0 l/m 0 min 0 min 5 W/m 2,3 km/h (1 Bft) 100,00 %
24.08.2018 20:36 17,8 C 16,7 C 16,1 C 63 % 1010,0 hPa 0,0 l/m 0 min 0 min 5 W/m 2,3 km/h (1 Bft) 100,00 %
24.08.2018 20:38 17,8 C 16,1 C 16,1 C 63 % 1010,0 hPa 0,0 l/m 0 min 0 min 5 W/m 2,3 km/h (1 Bft) 100,00 %
24.08.2018 20:40 17,8 C 16,1 C 16,1 C 64 % 1010,0 hPa 0,0 l/m 0 min 0 min 3 W/m 2,3 km/h (1 Bft) 100,00 %
24.08.2018 20:42 17,7 C 16,1 C 16,1 C 64 % 1010,0 hPa 0,0 l/m 0 min 0 min 0 W/m 4,5 km/h (1 Bft) 100,00 %
24.08.2018 20:44 17,7 C 16,1 C 16,1 C 64 % 1010,1 hPa 0,0 l/m 0 min 0 min 0 W/m 2,3 km/h (1 Bft) 100,00 %
24.08.2018 20:46 17,7 C 16,1 C 16,1 C 64 % 1010,0 hPa 0,0 l/m 0 min 0 min 0 W/m 2,3 km/h (1 Bft) 100,00 %
24.08.2018 20:48 17,7 C 16,1 C 16,1 C 64 % 1010,0 hPa 0,0 l/m 0 min 0 min 0 W/m 2,3 km/h (1 Bft) 100,00 %
24.08.2018 20:50 17,6 C 16,1 C 16,1 C 65 % 1010,0 hPa 0,0 l/m 0 min 0 min 0 W/m 2,3 km/h (1 Bft) 97,87 %
24.08.2018 20:52 17,6 C 16,1 C 16,1 C 64 % 1010,0 hPa 0,0 l/m 0 min 0 min 0 W/m 4,5 km/h (1 Bft) 97,87 %
24.08.2018 20:54 17,6 C 16,1 C 16,1 C 64 % 1010,0 hPa 0,0 l/m 0 min 0 min 0 W/m 2,3 km/h (1 Bft) 95,83 %
24.08.2018 20:56 17,5 C 16,1 C 16,1 C 65 % 1010,1 hPa 0,0 l/m 0 min 0 min 0 W/m 2,3 km/h (1 Bft) 97,92 %
24.08.2018 20:58 17,4 C 15,6 C 16,1 C 65 % 1010,1 hPa 0,0 l/m 0 min 0 min 0 W/m 2,3 km/h (1 Bft) 97,87 %
24.08.2018 21:00 17,4 C 15,6 C 16,1 C 65 % 1010,1 hPa 0,0 l/m 0 min 0 min 0 W/m 0,0 km/h (0 Bft) 97,96 %
24.08.2018 21:02 17,4 C 15,6 C 16,1 C 65 % 1010,1 hPa 0,0 l/m 0 min 0 min 0 W/m 2,3 km/h (1 Bft) 98,00 %
24.08.2018 21:04 17,4 C 15,6 C 16,1 C 66 % 1010,1 hPa 0,0 l/m 0 min 0 min 0 W/m 0,0 km/h (0 Bft) 97,87 %
24.08.2018 21:06 17,3 C 15,6 C 16,1 C 66 % 1010,1 hPa 0,0 l/m 0 min 0 min 0 W/m 0,0 km/h (0 Bft) 97,22 %
24.08.2018 21:08 17,3 C 15,6 C 15,6 C 67 % 1010,1 hPa 0,0 l/m 0 min 0 min 0 W/m 2,3 km/h (1 Bft) 95,83 %
24.08.2018 21:10 17,3 C 15,6 C 15,6 C 67 % 1010,1 hPa 0,0 l/m 0 min 0 min 0 W/m 0,0 km/h (0 Bft) 97,87 %
24.08.2018 21:12 17,2 C 15,6 C 15,6 C 67 % 1010,1 hPa 0,0 l/m 0 min 0 min 0 W/m 2,3 km/h (1 Bft) 91,84 %
24.08.2018 21:14 17,2 C 15,6 C 15,6 C 66 % 1010,2 hPa 0,0 l/m 0 min 0 min 0 W/m 2,3 km/h (1 Bft) 95,74 %
24.08.2018 21:16 17,2 C 15,6 C 15,6 C 66 % 1010,2 hPa 0,0 l/m 0 min 0 min 0 W/m 0,0 km/h (0 Bft) 93,62 %
24.08.2018 21:18 17,2 C 15,6 C 15,6 C 66 % 1010,1 hPa 0,0 l/m 0 min 0 min 0 W/m 2,3 km/h (1 Bft) 93,75 %
24.08.2018 21:20 17,1 C 15,6 C 15,6 C 66 % 1010,1 hPa 0,0 l/m 0 min 0 min 0 W/m 0,0 km/h (0 Bft) 95,83 %
24.08.2018 21:22 17,1 C 15,6 C 15,6 C 66 % 1010,1 hPa 0,0 l/m 0 min 0 min 0 W/m 0,0 km/h (0 Bft) 95,74 %
24.08.2018 21:24 17,1 C 15,6 C 15,6 C 66 % 1010,1 hPa 0,0 l/m 0 min 0 min 0 W/m 0,0 km/h (0 Bft) 95,74 %
24.08.2018 21:26 17,0 C 15,6 C 15,6 C 67 % 1010,1 hPa 0,0 l/m 0 min 0 min 0 W/m 2,3 km/h (1 Bft) 91,67 %
24.08.2018 21:28 17,0 C 15,6 C 15,6 C 67 % 1010,1 hPa 0,0 l/m 0 min 0 min 0 W/m 2,3 km/h (1 Bft) 89,58 %
24.08.2018 21:30 17,0 C 15,6 C 15,6 C 67 % 1010,2 hPa 0,0 l/m 0 min 0 min 0 W/m 2,3 km/h (1 Bft) 93,75 %
24.08.2018 21:32 16,9 C 15,6 C 15,6 C 67 % 1010,1 hPa 0,0 l/m 0 min 0 min 0 W/m 0,0 km/h (0 Bft) 93,62 %
24.08.2018 21:34 16,9 C 15,6 C 15,6 C 68 % 1010,2 hPa 0,0 l/m 0 min 0 min 0 W/m 0,0 km/h (0 Bft) 91,49 %
24.08.2018 21:36 16,9 C 15,6 C 15,6 C 68 % 1010,1 hPa 0,0 l/m 0 min 0 min 0 W/m 0,0 km/h (0 Bft) 93,75 %
24.08.2018 21:38 16,9 C 15,6 C 15,6 C 68 % 1010,1 hPa 0,0 l/m 0 min 0 min 0 W/m 0,0 km/h (0 Bft) 88,89 %
24.08.2018 21:40 16,8 C 15,6 C 15,6 C 68 % 1010,1 hPa 0,0 l/m 0 min 0 min 0 W/m 0,0 km/h (0 Bft) 93,75 %
24.08.2018 21:42 16,8 C 15,6 C 15,6 C 68 % 1010,0 hPa 0,0 l/m 0 min 0 min 0 W/m 0,0 km/h (0 Bft) 95,74 %
24.08.2018 21:44 16,8 C 15,6 C 15,0 C 67 % 1010,0 hPa 0,0 l/m 0 min 0 min 0 W/m 2,3 km/h (1 Bft) 91,84 %
24.08.2018 21:46 16,8 C 15,6 C 15,0 C 66 % 1010,0 hPa 0,0 l/m 0 min 0 min 0 W/m 2,3 km/h (1 Bft) 93,75 %
24.08.2018 21:48 16,7 C 15,6 C 15,0 C 66 % 1010,0 hPa 0,0 l/m 0 min 0 min 0 W/m 2,3 km/h (1 Bft) 95,65 %
24.08.2018 21:50 16,7 C 15,6 C 15,0 C 66 % 1010,0 hPa 0,0 l/m 0 min 0 min 0 W/m 2,3 km/h (1 Bft) 95,83 %
24.08.2018 21:52 16,7 C 15,6 C 15,6 C 66 % 1010,0 hPa 0,0 l/m 0 min 0 min 0 W/m 2,3 km/h (1 Bft) 93,75 %
24.08.2018 21:54 16,7 C 15,6 C 15,6 C 66 % 1010,0 hPa 0,0 l/m 0 min 0 min 0 W/m 2,3 km/h (1 Bft) 95,74 %
24.08.2018 21:56 16,6 C 15,6 C 15,6 C 66 % 1010,0 hPa 0,0 l/m 0 min 0 min 0 W/m 2,3 km/h (1 Bft) 91,49 %
24.08.2018 21:58 16,6 C 15,6 C 15,6 C 66 % 1010,0 hPa 0,0 l/m 0 min 0 min 0 W/m 0,0 km/h (0 Bft) 95,65 %
24.08.2018 22:00 16,6 C 15,6 C 15,6 C 66 % 1010,0 hPa 0,0 l/m 0 min 0 min 0 W/m 2,3 km/h (1 Bft) 95,74 %
24.08.2018 22:02 16,6 C 15,6 C 15,0 C 66 % 1009,9 hPa 0,0 l/m 0 min 0 min 0 W/m 2,3 km/h (1 Bft) 93,02 %
24.08.2018 22:04 16,6 C 15,6 C 15,0 C 66 % 1009,9 hPa 0,0 l/m 0 min 0 min 0 W/m 0,0 km/h (0 Bft) 96,00 %
24.08.2018 22:06 16,6 C 15,6 C 15,0 C 66 % 1009,8 hPa 0,0 l/m 0 min 0 min 0 W/m 0,0 km/h (0 Bft) 95,83 %
24.08.2018 22:08 16,5 C 15,6 C 15,0 C 66 % 1009,8 hPa 0,0 l/m 0 min 0 min 0 W/m 0,0 km/h (0 Bft) 95,74 %
24.08.2018 22:10 16,5 C 15,6 C 15,0 C 66 % 1009,7 hPa 0,0 l/m 0 min 0 min 0 W/m 2,3 km/h (1 Bft) 95,74 %
24.08.2018 22:12 16,5 C 15,6 C 15,0 C 66 % 1009,8 hPa 0,0 l/m 0 min 0 min 0 W/m 2,3 km/h (1 Bft) 97,87 %
24.08.2018 22:14 16,5 C 15,6 C 15,0 C 67 % 1009,8 hPa 0,0 l/m 0 min 0 min 0 W/m 2,3 km/h (1 Bft) 97,92 %
24.08.2018 22:16 16,4 C 15,6 C 15,0 C 67 % 1009,8 hPa 0,0 l/m 0 min 0 min 0 W/m 2,3 km/h (1 Bft) 95,74 %
24.08.2018 22:18 16,4 C 15,6 C 15,0 C 67 % 1009,8 hPa 0,0 l/m 0 min 0 min 0 W/m 2,3 km/h (1 Bft) 100,00 %
24.08.2018 22:20 16,4 C 15,6 C 15,0 C 67 % 1009,7 hPa 0,0 l/m 0 min 0 min 0 W/m 0,0 km/h (0 Bft) 97,87 %
24.08.2018 22:22 16,4 C 15,6 C 15,0 C 67 % 1009,6 hPa 0,0 l/m 0 min 0 min 0 W/m 4,5 km/h (1 Bft) 100,00 %
24.08.2018 22:24 16,4 C 15,6 C 15,0 C 67 % 1009,6 hPa 0,0 l/m 0 min 0 min 0 W/m 4,5 km/h (1 Bft) 100,00 %
24.08.2018 22:26 16,4 C 15,6 C 15,0 C 67 % 1009,6 hPa 0,0 l/m 0 min 0 min 0 W/m 4,5 km/h (1 Bft) 100,00 %
24.08.2018 22:28 16,4 C 15,6 C 15,0 C 67 % 1009,6 hPa 0,0 l/m 0 min 0 min 0 W/m 4,5 km/h (1 Bft) 100,00 %
24.08.2018 22:30 16,3 C 15,6 C 15,0 C 67 % 1009,6 hPa 0,0 l/m 0 min 0 min 0 W/m 4,5 km/h (1 Bft) 97,62 %
24.08.2018 22:32 16,3 C 15,6 C 15,0 C 67 % 1009,7 hPa 0,0 l/m 0 min 0 min 0 W/m 2,3 km/h (1 Bft) 100,00 %
24.08.2018 22:34 16,3 C 15,6 C 15,0 C 67 % 1009,7 hPa 0,0 l/m 0 min 0 min 0 W/m 2,3 km/h (1 Bft) 100,00 %
24.08.2018 22:36 16,3 C 15,6 C 15,0 C 68 % 1009,7 hPa 0,0 l/m 0 min 0 min 0 W/m 4,5 km/h (1 Bft) 100,00 %
24.08.2018 22:38 16,3 C 15,6 C 15,0 C 68 % 1009,7 hPa 0,0 l/m 0 min 0 min 0 W/m 4,5 km/h (1 Bft) 100,00 %
24.08.2018 22:40 16,3 C 15,6 C 15,0 C 68 % 1009,7 hPa 0,0 l/m 0 min 0 min 0 W/m 4,5 km/h (1 Bft) 97,87 %
24.08.2018 22:42 16,2 C 15,0 C 15,0 C 69 % 1009,7 hPa 0,0 l/m 0 min 0 min 0 W/m 2,3 km/h (1 Bft) 97,96 %
24.08.2018 22:44 16,2 C 15,0 C 15,0 C 69 % 1009,7 hPa 0,0 l/m 0 min 0 min 0 W/m 4,5 km/h (1 Bft) 100,00 %
24.08.2018 22:46 16,2 C 15,0 C 15,0 C 69 % 1009,6 hPa 0,0 l/m 0 min 0 min 0 W/m 2,3 km/h (1 Bft) 100,00 %
24.08.2018 22:48 16,2 C 15,0 C 15,0 C 69 % 1009,6 hPa 0,0 l/m 0 min 0 min 0 W/m 2,3 km/h (1 Bft) 100,00 %
24.08.2018 22:50 16,2 C 15,0 C 15,0 C 69 % 1009,5 hPa 0,0 l/m 0 min 0 min 0 W/m 2,3 km/h (1 Bft) 100,00 %
24.08.2018 22:52 16,2 C 15,0 C 15,6 C 69 % 1009,5 hPa 0,0 l/m 0 min 0 min 0 W/m 6,8 km/h (2 Bft) 97,87 %
24.08.2018 22:54 16,2 C 15,0 C 15,6 C 68 % 1009,5 hPa 0,0 l/m 0 min 0 min 0 W/m 6,8 km/h (2 Bft) 100,00 %
24.08.2018 22:56 16,1 C 15,6 C 15,6 C 68 % 1009,4 hPa 0,0 l/m 0 min 0 min 0 W/m 4,5 km/h (1 Bft) 97,87 %
24.08.2018 22:58 16,1 C 15,6 C 15,6 C 68 % 1009,5 hPa 0,0 l/m 0 min 0 min 0 W/m 4,5 km/h (1 Bft) 100,00 %
24.08.2018 23:00 16,1 C 15,6 C 15,6 C 68 % 1009,4 hPa 0,0 l/m 0 min 0 min 0 W/m 2,3 km/h (1 Bft) 100,00 %
24.08.2018 23:02 16,1 C 15,6 C 15,6 C 68 % 1009,4 hPa 0,0 l/m 0 min 0 min 0 W/m 2,3 km/h (1 Bft) 100,00 %
24.08.2018 23:04 16,1 C 15,6 C 15,6 C 68 % 1009,3 hPa 0,0 l/m 0 min 0 min 0 W/m 4,5 km/h (1 Bft) 100,00 %
24.08.2018 23:06 16,1 C 15,6 C 15,6 C 68 % 1009,3 hPa 0,0 l/m 0 min 0 min 0 W/m 4,5 km/h (1 Bft) 100,00 %
24.08.2018 23:08 16,1 C 15,0 C 15,6 C 68 % 1009,2 hPa 0,0 l/m 0 min 0 min 0 W/m 6,8 km/h (2 Bft) 98,11 %
24.08.2018 23:10 16,1 C 15,6 C 15,6 C 68 % 1009,3 hPa 0,0 l/m 0 min 0 min 0 W/m 4,5 km/h (1 Bft) 100,00 %
24.08.2018 23:12 16,0 C 15,0 C 15,6 C 67 % 1009,3 hPa 0,0 l/m 0 min 0 min 0 W/m 4,5 km/h (1 Bft) 96,67 %
24.08.2018 23:14 16,0 C 15,0 C 15,6 C 67 % 1009,3 hPa 0,0 l/m 0 min 0 min 0 W/m 4,5 km/h (1 Bft) 100,00 %
24.08.2018 23:16 16,0 C 15,0 C 15,6 C 67 % 1009,3 hPa 0,0 l/m 0 min 0 min 0 W/m 2,3 km/h (1 Bft) 100,00 %
24.08.2018 23:18 16,0 C 15,0 C 15,6 C 67 % 1009,2 hPa 0,0 l/m 0 min 0 min 0 W/m 2,3 km/h (1 Bft) 100,00 %
24.08.2018 23:20 16,0 C 15,0 C 15,6 C 67 % 1009,3 hPa 0,0 l/m 0 min 0 min 0 W/m 2,3 km/h (1 Bft) 100,00 %
24.08.2018 23:22 16,0 C 15,0 C 15,6 C 67 % 1009,3 hPa 0,0 l/m 0 min 0 min 0 W/m 2,3 km/h (1 Bft) 100,00 %
24.08.2018 23:24 16,0 C 15,0 C 15,6 C 67 % 1009,3 hPa 0,0 l/m 0 min 0 min 0 W/m 2,3 km/h (1 Bft) 100,00 %
24.08.2018 23:26 15,9 C 15,0 C 15,0 C 67 % 1009,3 hPa 0,0 l/m 0 min 0 min 0 W/m 2,3 km/h (1 Bft) 100,00 %
24.08.2018 23:28 16,0 C 15,0 C 15,0 C 67 % 1009,3 hPa 0,0 l/m 0 min 0 min 0 W/m 2,3 km/h (1 Bft) 100,00 %
24.08.2018 23:30 15,9 C 15,0 C 15,0 C 67 % 1009,3 hPa 0,0 l/m 0 min 0 min 0 W/m 2,3 km/h (1 Bft) 100,00 %
24.08.2018 23:32 15,9 C 15,0 C 15,0 C 67 % 1009,3 hPa 0,0 l/m 0 min 0 min 0 W/m 4,5 km/h (1 Bft) 100,00 %
24.08.2018 23:34 15,9 C 15,0 C 15,0 C 67 % 1009,3 hPa 0,0 l/m 0 min 0 min 0 W/m 4,5 km/h (1 Bft) 100,00 %
24.08.2018 23:36 15,9 C 15,0 C 15,0 C 67 % 1009,3 hPa 0,0 l/m 0 min 0 min 0 W/m 2,3 km/h (1 Bft) 100,00 %
24.08.2018 23:38 15,9 C 15,0 C 15,0 C 67 % 1009,3 hPa 0,0 l/m 0 min 0 min 0 W/m 4,5 km/h (1 Bft) 100,00 %
24.08.2018 23:40 15,9 C 15,0 C 15,0 C 67 % 1009,3 hPa 0,0 l/m 0 min 0 min 0 W/m 2,3 km/h (1 Bft) 100,00 %
24.08.2018 23:42 15,9 C 15,0 C 15,0 C 67 % 1009,3 hPa 0,0 l/m 0 min 0 min 0 W/m 2,3 km/h (1 Bft) 100,00 %
24.08.2018 23:44 15,9 C 15,0 C 15,0 C 67 % 1009,3 hPa 0,0 l/m 0 min 0 min 0 W/m 4,5 km/h (1 Bft) 100,00 %
24.08.2018 23:46 15,9 C 15,0 C 15,0 C 67 % 1009,4 hPa 0,0 l/m 0 min 0 min 0 W/m 4,5 km/h (1 Bft) 100,00 %
24.08.2018 23:48 15,9 C 15,0 C 15,0 C 67 % 1009,4 hPa 0,0 l/m 0 min 0 min 0 W/m 2,3 km/h (1 Bft) 100,00 %
24.08.2018 23:50 15,9 C 15,0 C 15,0 C 67 % 1009,3 hPa 0,0 l/m 0 min 0 min 0 W/m 4,5 km/h (1 Bft) 97,92 %
24.08.2018 23:52 15,8 C 15,0 C 15,0 C 67 % 1009,3 hPa 0,0 l/m 0 min 0 min 0 W/m 4,5 km/h (1 Bft) 95,83 %
24.08.2018 23:54 15,8 C 15,0 C 15,0 C 67 % 1009,3 hPa 0,0 l/m 0 min 0 min 0 W/m 4,5 km/h (1 Bft) 95,83 %
24.08.2018 23:56 15,8 C 15,0 C 15,0 C 67 % 1009,3 hPa 0,0 l/m 0 min 0 min 0 W/m 4,5 km/h (1 Bft) 93,62 %
24.08.2018 23:58 15,8 C 15,0 C 15,0 C 67 % 1009,3 hPa 0,0 l/m 0 min 0 min 0 W/m 4,5 km/h (1 Bft) 95,83 %
_ Min-Zeit 10:20 10:06 10:08 15:04 04:36 - - - - 02:34 21:38
Minimum _ 15,7 C 13,9 C 13,9 C 50 % 1008,1 hPa - - - - 0,0 km/h (0 Bft) 88,89 %
_ Max-Zeit 13:44 12:22 14:22 05:00 11:44 01:50 10:58 00:44 13:40 15:12 01:08
Maximum _ 21,6 C 28,3 C 20,6 C 94 % 1011,0 hPa 0,2 l/m 2 min 2 min 956 W/m 27,0 km/h
O-SO (4 Bft)
100,00 %
Durchschnitt _ 18,2 C 17,9 C 17,0 C 74 % 1009,6 hPa #0,4 l/m #4:00 h #1:32 h 239 W/m 6,7 km/h (2 Bft) 97,50 %
© 2018 W. Hausmann